Time,TemperatureF,DewpointF,PressureIn,WindDirection,WindDirectionDegrees,WindSpeedMPH,WindSpeedGustMPH,Humidity,HourlyPrecipIn,Conditions,Clouds,dailyrainin,SoftwareType,DateUTC
2013-09-24 00:00:00,58.3,32.8,29.12,ESE,118,4.0,4.0,38,0.00,,CLR,0.00,VWS V14.01,2013-09-24 05:00:00,
2013-09-24 00:01:00,58.3,32.8,29.12,SSE,156,4.0,6.3,38,0.00,,CLR,0.00,VWS V14.01,2013-09-24 05:01:00,
2013-09-24 00:02:00,58.3,32.8,29.12,East,88,4.9,4.9,38,0.00,,CLR,0.00,VWS V14.01,2013-09-24 05:02:00,
2013-09-24 00:04:00,58.3,32.8,29.12,SSE,149,4.9,4.9,38,0.00,,CLR,0.00,VWS V14.01,2013-09-24 05:04:00,
2013-09-24 00:05:00,58.5,33.0,29.12,ESE,122,3.6,5.4,38,0.00,,CLR,0.00,VWS V14.01,2013-09-24 05:05:00,
2013-09-24 00:06:00,58.5,33.0,29.12,SE,134,3.6,4.9,38,0.00,,CLR,0.00,VWS V14.01,2013-09-24 05:06:00,
2013-09-24 00:09:00,58.5,33.0,29.12,SE,125,3.1,5.4,38,0.00,,CLR,0.00,VWS V14.01,2013-09-24 05:09:00,
2013-09-24 00:10:00,58.5,33.0,29.12,SE,128,3.1,3.1,38,0.00,,CLR,0.00,VWS V14.01,2013-09-24 05:10:00,
2013-09-24 00:11:00,58.5,33.0,29.12,SSE,157,4.5,4.5,38,0.00,,CLR,0.00,VWS V14.01,2013-09-24 05:11:00,
2013-09-24 00:14:00,58.5,30.2,29.12,SE,145,4.0,5.4,34,0.00,,CLR,0.00,VWS V14.01,2013-09-24 05:14:00,
2013-09-24 00:15:00,58.5,30.2,29.12,SE,138,4.0,4.0,34,0.00,,CLR,0.00,VWS V14.01,2013-09-24 05:15:00,
2013-09-24 00:16:00,58.5,30.2,29.12,ESE,109,3.1,4.0,34,0.00,,CLR,0.00,VWS V14.01,2013-09-24 05:16:00,
2013-09-24 00:17:00,58.5,30.2,29.12,ESE,116,4.0,5.4,34,0.00,,CLR,0.00,VWS V14.01,2013-09-24 05:17:00,
2013-09-24 00:20:00,58.5,30.2,29.12,SSE,148,2.7,2.7,34,0.00,,CLR,0.00,VWS V14.01,2013-09-24 05:20:00,
2013-09-24 00:21:00,58.5,33.0,29.12,ESE,113,3.1,3.1,38,0.00,,CLR,0.00,VWS V14.01,2013-09-24 05:21:00,
2013-09-24 00:22:00,58.5,33.0,29.12,SE,129,4.0,4.5,38,0.00,,CLR,0.00,VWS V14.01,2013-09-24 05:22:00,
2013-09-24 00:25:00,58.5,30.2,29.12,ESE,120,4.0,4.0,34,0.00,,CLR,0.00,VWS V14.01,2013-09-24 05:25:00,
2013-09-24 00:26:00,58.5,30.2,29.12,ESE,109,5.4,5.4,34,0.00,,CLR,0.00,VWS V14.01,2013-09-24 05:26:00,
2013-09-24 00:27:00,58.6,30.4,29.12,ESE,121,0.0,3.6,34,0.00,,CLR,0.00,VWS V14.01,2013-09-24 05:27:00,
2013-09-24 00:31:00,58.6,30.4,29.12,ESE,103,0.0,3.6,34,0.00,,CLR,0.00,VWS V14.01,2013-09-24 05:31:00,
2013-09-24 00:32:00,58.6,30.4,29.12,ESE,110,3.6,3.6,34,0.00,,CLR,0.00,VWS V14.01,2013-09-24 05:32:00,
2013-09-24 00:33:00,58.6,30.4,29.12,SSE,167,3.1,3.6,34,0.00,,CLR,0.00,VWS V14.01,2013-09-24 05:33:00,
2013-09-24 00:36:00,58.6,30.4,29.12,SSE,147,3.6,5.8,34,0.00,,CLR,0.00,VWS V14.01,2013-09-24 05:36:00,
2013-09-24 00:37:00,58.8,30.5,29.12,SE,128,4.0,5.4,34,0.00,,CLR,0.00,VWS V14.01,2013-09-24 05:37:00,
2013-09-24 00:38:00,58.8,30.5,29.12,SE,129,2.2,4.0,34,0.00,,CLR,0.00,VWS V14.01,2013-09-24 05:38:00,
2013-09-24 00:42:00,58.6,30.4,29.12,SE,142,2.2,3.6,34,0.00,,CLR,0.00,VWS V14.01,2013-09-24 05:42:00,
2013-09-24 00:43:00,58.6,30.4,29.12,ESE,104,2.7,4.0,34,0.00,,CLR,0.00,VWS V14.01,2013-09-24 05:43:00,
2013-09-24 00:47:00,58.5,30.2,29.12,SSE,150,3.1,3.1,34,0.00,,CLR,0.00,VWS V14.01,2013-09-24 05:47:00,
2013-09-24 00:48:00,58.5,30.2,29.12,SSE,150,3.1,3.1,34,0.00,,CLR,0.00,VWS V14.01,2013-09-24 05:48:00,
2013-09-24 00:49:00,58.3,30.1,29.12,SSE,155,3.1,4.0,34,0.00,,CLR,0.00,VWS V14.01,2013-09-24 05:49:00,
2013-09-24 00:50:00,58.3,30.1,29.12,SSE,158,3.6,4.0,34,0.00,,CLR,0.00,VWS V14.01,2013-09-24 05:50:00,
2013-09-24 00:53:00,58.1,32.7,29.12,SSE,166,3.6,4.0,38,0.00,,CLR,0.00,VWS V14.01,2013-09-24 05:53:00,
2013-09-24 00:54:00,58.1,32.7,29.12,SSE,159,0.0,4.0,38,0.00,,CLR,0.00,VWS V14.01,2013-09-24 05:54:00,
2013-09-24 00:55:00,58.1,32.7,29.12,SSE,152,2.7,5.4,38,0.00,,CLR,0.00,VWS V14.01,2013-09-24 05:55:00,
2013-09-24 00:57:00,58.1,32.7,29.12,SE,146,2.7,2.7,38,0.00,,CLR,0.00,VWS V14.01,2013-09-24 05:57:00,
2013-09-24 00:58:00,58.1,32.7,29.12,ESE,123,0.0,4.0,38,0.00,,CLR,0.00,VWS V14.01,2013-09-24 05:58:00,
2013-09-24 00:59:00,58.1,32.7,29.12,South,172,5.4,5.4,38,0.00,,CLR,0.00,VWS V14.01,2013-09-24 05:59:00,
2013-09-24 01:00:00,57.9,32.5,29.12,SSE,161,3.1,3.1,38,0.00,,CLR,0.00,VWS V14.01,2013-09-24 06:00:00,
2013-09-24 01:01:00,57.9,32.5,29.12,SE,140,5.4,5.4,38,0.00,,CLR,0.00,VWS V14.01,2013-09-24 06:01:00,
2013-09-24 01:02:00,57.9,32.5,29.12,SE,143,0.0,5.4,38,0.00,,CLR,0.00,VWS V14.01,2013-09-24 06:02:00,
2013-09-24 01:05:00,57.9,32.5,29.12,SSE,151,0.0,0.0,38,0.00,,CLR,0.00,VWS V14.01,2013-09-24 06:05:00,
2013-09-24 01:06:00,57.7,32.3,29.12,SSE,149,0.0,0.0,38,0.00,,CLR,0.00,VWS V14.01,2013-09-24 06:06:00,
2013-09-24 01:07:00,57.7,32.3,29.12,SSE,147,3.6,3.6,38,0.00,,CLR,0.00,VWS V14.01,2013-09-24 06:07:00,
2013-09-24 01:08:00,57.7,32.3,29.12,SSE,147,0.0,3.6,38,0.00,,CLR,0.00,VWS V14.01,2013-09-24 06:08:00,
2013-09-24 01:10:00,57.7,32.3,29.12,SSE,148,2.7,3.6,38,0.00,,CLR,0.00,VWS V14.01,2013-09-24 06:10:00,
2013-09-24 01:13:00,57.6,32.2,29.12,ESE,122,2.2,2.2,38,0.00,,CLR,0.00,VWS V14.01,2013-09-24 06:13:00,
2013-09-24 01:14:00,57.6,32.2,29.12,SE,124,0.0,3.1,38,0.00,,CLR,0.00,VWS V14.01,2013-09-24 06:14:00,
2013-09-24 01:15:00,57.6,32.2,29.12,SE,126,0.0,2.2,38,0.00,,CLR,0.00,VWS V14.01,2013-09-24 06:15:00,
2013-09-24 01:18:00,57.6,32.2,29.12,SE,135,0.0,3.1,38,0.00,,CLR,0.00,VWS V14.01,2013-09-24 06:18:00,
2013-09-24 01:19:00,57.6,32.2,29.12,ESE,110,3.1,4.0,38,0.00,,CLR,0.00,VWS V14.01,2013-09-24 06:19:00,
2013-09-24 01:20:00,57.6,32.2,29.12,South,177,3.6,4.0,38,0.00,,CLR,0.00,VWS V14.01,2013-09-24 06:20:00,
2013-09-24 01:23:00,57.6,32.2,29.12,SE,129,2.7,3.6,38,0.00,,CLR,0.00,VWS V14.01,2013-09-24 06:23:00,
2013-09-24 01:24:00,57.7,32.3,29.12,SE,126,3.6,4.0,38,0.00,,CLR,0.00,VWS V14.01,2013-09-24 06:24:00,
2013-09-24 01:25:00,57.6,32.2,29.12,SSE,157,2.7,3.6,38,0.00,,CLR,0.00,VWS V14.01,2013-09-24 06:25:00,
2013-09-24 01:28:00,57.6,32.2,29.12,SE,136,2.2,4.9,38,0.00,,CLR,0.00,VWS V14.01,2013-09-24 06:28:00,
2013-09-24 01:30:00,57.6,32.2,29.12,ESE,117,3.6,3.6,38,0.00,,CLR,0.00,VWS V14.01,2013-09-24 06:30:00,
2013-09-24 01:31:00,57.6,32.2,29.12,ESE,122,2.7,4.0,38,0.00,,CLR,0.00,VWS V14.01,2013-09-24 06:31:00,
2013-09-24 01:34:00,57.7,32.3,29.12,ESE,102,2.7,4.0,38,0.00,,CLR,0.00,VWS V14.01,2013-09-24 06:34:00,
2013-09-24 01:35:00,57.6,32.2,29.12,SSE,154,4.9,4.9,38,0.00,,CLR,0.00,VWS V14.01,2013-09-24 06:35:00,
2013-09-24 01:36:00,57.7,32.3,29.12,ESE,115,3.6,3.6,38,0.00,,CLR,0.00,VWS V14.01,2013-09-24 06:36:00,
2013-09-24 01:39:00,57.7,32.3,29.12,ESE,122,3.1,3.1,38,0.00,,CLR,0.00,VWS V14.01,2013-09-24 06:39:00,
2013-09-24 01:40:00,57.7,32.3,29.12,ESE,110,3.1,3.1,38,0.00,,CLR,0.00,VWS V14.01,2013-09-24 06:40:00,
2013-09-24 01:42:00,57.7,32.3,29.12,SE,128,3.1,3.1,38,0.00,,CLR,0.00,VWS V14.01,2013-09-24 06:42:00,
2013-09-24 01:44:00,57.7,32.3,29.12,East,81,4.0,4.9,38,0.00,,CLR,0.00,VWS V14.01,2013-09-24 06:44:00,
2013-09-24 01:45:00,57.7,32.3,29.12,SSE,162,4.0,4.0,38,0.00,,CLR,0.00,VWS V14.01,2013-09-24 06:45:00,
2013-09-24 01:46:00,57.7,32.3,29.12,SE,140,4.0,4.0,38,0.00,,CLR,0.00,VWS V14.01,2013-09-24 06:46:00,
2013-09-24 01:48:00,57.9,32.5,29.12,SE,136,3.6,3.6,38,0.00,,CLR,0.00,VWS V14.01,2013-09-24 06:48:00,
2013-09-24 01:50:00,57.9,32.5,29.12,SE,124,2.7,2.7,38,0.00,,CLR,0.00,VWS V14.01,2013-09-24 06:50:00,
2013-09-24 01:51:00,57.9,32.5,29.12,ESE,117,3.1,5.8,38,0.00,,CLR,0.00,VWS V14.01,2013-09-24 06:51:00,
2013-09-24 01:52:00,57.9,32.5,29.12,ESE,123,4.9,4.9,38,0.00,,CLR,0.00,VWS V14.01,2013-09-24 06:52:00,
2013-09-24 01:55:00,57.9,32.5,29.12,SE,125,4.0,4.9,38,0.00,,CLR,0.00,VWS V14.01,2013-09-24 06:55:00,
2013-09-24 01:57:00,57.9,32.5,29.12,ESE,105,2.2,5.8,38,0.00,,CLR,0.00,VWS V14.01,2013-09-24 06:57:00,
2013-09-24 01:58:00,57.9,32.5,29.12,ESE,106,2.7,3.1,38,0.00,,CLR,0.00,VWS V14.01,2013-09-24 06:58:00,
2013-09-24 02:00:00,57.9,32.5,29.12,East,92,0.0,3.1,38,0.00,,CLR,0.00,VWS V14.01,2013-09-24 07:00:00,
2013-09-24 02:03:00,57.7,32.3,29.12,SSE,148,3.6,3.6,38,0.00,,CLR,0.00,VWS V14.01,2013-09-24 07:03:00,
2013-09-24 02:04:00,57.6,32.2,29.12,SSE,153,0.0,0.0,38,0.00,,CLR,0.00,VWS V14.01,2013-09-24 07:04:00,
2013-09-24 02:06:00,57.6,32.2,29.12,ESE,105,0.0,0.0,38,0.00,,CLR,0.00,VWS V14.01,2013-09-24 07:06:00,
2013-09-24 02:09:00,57.4,32.0,29.12,SE,125,3.6,3.6,38,0.00,,CLR,0.00,VWS V14.01,2013-09-24 07:09:00,
2013-09-24 02:11:00,57.4,32.0,29.12,SSE,159,2.2,3.6,38,0.00,,CLR,0.00,VWS V14.01,2013-09-24 07:11:00,
2013-09-24 02:14:00,57.2,31.8,29.12,ESE,113,2.7,2.7,38,0.00,,CLR,0.00,VWS V14.01,2013-09-24 07:14:00,
2013-09-24 02:15:00,57.2,31.8,29.12,ESE,112,3.6,3.6,38,0.00,,CLR,0.00,VWS V14.01,2013-09-24 07:15:00,
2013-09-24 02:16:00,57.2,31.8,29.12,ESE,120,3.1,3.1,38,0.00,,CLR,0.00,VWS V14.01,2013-09-24 07:16:00,
2013-09-24 02:18:00,57.2,31.8,29.12,ESE,122,2.7,3.1,38,0.00,,CLR,0.00,VWS V14.01,2013-09-24 07:18:00,
2013-09-24 02:20:00,57.2,31.8,29.12,SSE,152,2.7,2.7,38,0.00,,CLR,0.00,VWS V14.01,2013-09-24 07:20:00,
2013-09-24 02:21:00,57.2,31.8,29.12,ESE,123,3.1,3.1,38,0.00,,CLR,0.00,VWS V14.01,2013-09-24 07:21:00,
2013-09-24 02:22:00,57.2,31.8,29.12,ESE,123,0.0,3.1,38,0.00,,CLR,0.00,VWS V14.01,2013-09-24 07:22:00,
2013-09-24 02:23:00,57.2,31.8,29.12,ESE,123,0.0,0.0,38,0.00,,CLR,0.00,VWS V14.01,2013-09-24 07:23:00,
2013-09-24 02:26:00,57.0,35.3,29.12,SE,135,2.2,2.2,44,0.00,,CLR,0.00,VWS V14.01,2013-09-24 07:26:00,
2013-09-24 02:27:00,57.0,35.3,29.12,SE,138,4.0,4.0,44,0.00,,CLR,0.00,VWS V14.01,2013-09-24 07:27:00,
2013-09-24 02:28:00,57.0,35.3,29.12,ESE,114,3.6,4.0,44,0.00,,CLR,0.00,VWS V14.01,2013-09-24 07:28:00,
2013-09-24 02:30:00,57.0,35.3,29.12,SE,128,2.2,3.1,44,0.00,,CLR,0.00,VWS V14.01,2013-09-24 07:30:00,
2013-09-24 02:32:00,57.0,35.3,29.12,ESE,120,3.1,3.6,44,0.00,,CLR,0.00,VWS V14.01,2013-09-24 07:32:00,
2013-09-24 02:33:00,57.0,35.3,29.12,ESE,116,3.1,3.1,44,0.00,,CLR,0.00,VWS V14.01,2013-09-24 07:33:00,
2013-09-24 02:35:00,57.0,35.3,29.12,ESE,122,3.1,3.6,44,0.00,,CLR,0.00,VWS V14.01,2013-09-24 07:35:00,
2013-09-24 02:37:00,57.0,35.3,29.12,SE,130,3.1,4.0,44,0.00,,CLR,0.00,VWS V14.01,2013-09-24 07:37:00,
2013-09-24 02:38:00,57.0,35.3,29.12,East,101,2.7,4.0,44,0.00,,CLR,0.00,VWS V14.01,2013-09-24 07:38:00,
2013-09-24 02:41:00,57.0,35.3,29.12,ESE,105,3.1,3.1,44,0.00,,CLR,0.00,VWS V14.01,2013-09-24 07:41:00,
2013-09-24 02:43:00,57.2,35.5,29.12,SE,136,2.7,3.1,44,0.00,,CLR,0.00,VWS V14.01,2013-09-24 07:43:00,
2013-09-24 02:45:00,57.2,35.5,29.12,ESE,105,2.7,4.0,44,0.00,,CLR,0.00,VWS V14.01,2013-09-24 07:45:00,
2013-09-24 02:47:00,57.2,35.5,29.12,ESE,122,2.2,2.7,44,0.00,,CLR,0.00,VWS V14.01,2013-09-24 07:47:00,
2013-09-24 02:48:00,57.2,35.5,29.12,ESE,111,3.1,3.6,44,0.00,,CLR,0.00,VWS V14.01,2013-09-24 07:48:00,
2013-09-24 02:49:00,57.2,35.5,29.12,ESE,111,0.0,3.1,44,0.00,,CLR,0.00,VWS V14.01,2013-09-24 07:49:00,
2013-09-24 02:51:00,57.2,35.5,29.12,SE,129,3.6,3.6,44,0.00,,CLR,0.00,VWS V14.01,2013-09-24 07:51:00,
2013-09-24 02:53:00,57.2,35.5,29.12,ESE,116,0.0,3.6,44,0.00,,CLR,0.00,VWS V14.01,2013-09-24 07:53:00,
2013-09-24 02:54:00,57.2,35.5,29.12,SE,124,3.6,3.6,44,0.00,,CLR,0.00,VWS V14.01,2013-09-24 07:54:00,
2013-09-24 02:56:00,57.2,35.5,29.12,ESE,122,0.0,3.6,44,0.00,,CLR,0.00,VWS V14.01,2013-09-24 07:56:00,
2013-09-24 02:57:00,57.2,35.5,29.12,ESE,123,2.7,3.6,44,0.00,,CLR,0.00,VWS V14.01,2013-09-24 07:57:00,
2013-09-24 02:58:00,57.2,35.5,29.12,SE,129,2.7,4.0,44,0.00,,CLR,0.00,VWS V14.01,2013-09-24 07:58:00,
2013-09-24 02:59:00,57.2,35.5,29.12,SE,129,0.0,4.0,44,0.00,,CLR,0.00,VWS V14.01,2013-09-24 07:59:00,
2013-09-24 03:00:00,57.2,35.5,29.12,SE,139,3.6,3.6,44,0.00,,CLR,0.00,VWS V14.01,2013-09-24 08:00:00,
2013-09-24 03:01:00,57.2,35.5,29.12,SE,127,2.2,2.2,44,0.00,,CLR,0.00,VWS V14.01,2013-09-24 08:01:00,
2013-09-24 03:02:00,57.2,35.5,29.12,ESE,109,3.6,3.6,44,0.00,,CLR,0.00,VWS V14.01,2013-09-24 08:02:00,
2013-09-24 03:03:00,57.2,35.5,29.12,ESE,104,5.8,5.8,44,0.00,,CLR,0.00,VWS V14.01,2013-09-24 08:03:00,
2013-09-24 03:04:00,57.2,35.5,29.12,ESE,108,3.6,5.8,44,0.00,,CLR,0.00,VWS V14.01,2013-09-24 08:04:00,
2013-09-24 03:05:00,57.2,35.5,29.12,SSE,150,3.6,3.6,44,0.00,,CLR,0.00,VWS V14.01,2013-09-24 08:05:00,
2013-09-24 03:07:00,57.2,35.5,29.12,ESE,105,3.6,3.6,44,0.00,,CLR,0.00,VWS V14.01,2013-09-24 08:07:00,
2013-09-24 03:09:00,57.0,35.3,29.12,East,96,4.0,4.9,44,0.00,,CLR,0.00,VWS V14.01,2013-09-24 08:09:00,
2013-09-24 03:10:00,57.0,35.3,29.12,East,99,2.7,2.7,44,0.00,,CLR,0.00,VWS V14.01,2013-09-24 08:10:00,
2013-09-24 03:12:00,57.0,35.3,29.12,SSE,162,3.1,3.6,44,0.00,,CLR,0.00,VWS V14.01,2013-09-24 08:12:00,
2013-09-24 03:14:00,57.0,35.3,29.12,SE,131,2.7,3.1,44,0.00,,CLR,0.00,VWS V14.01,2013-09-24 08:14:00,
2013-09-24 03:15:00,57.0,35.3,29.12,SE,129,2.7,2.7,44,0.00,,CLR,0.00,VWS V14.01,2013-09-24 08:15:00,
2013-09-24 03:16:00,56.8,38.4,29.12,ESE,112,4.0,4.0,50,0.00,,CLR,0.00,VWS V14.01,2013-09-24 08:16:00,
2013-09-24 03:18:00,56.8,38.4,29.12,SE,136,2.7,3.6,50,0.00,,CLR,0.00,VWS V14.01,2013-09-24 08:18:00,
2013-09-24 03:20:00,56.8,38.4,29.12,SE,126,3.1,3.6,50,0.00,,CLR,0.00,VWS V14.01,2013-09-24 08:20:00,
2013-09-24 03:21:00,56.8,38.4,29.12,SE,143,4.0,4.0,50,0.00,,CLR,0.00,VWS V14.01,2013-09-24 08:21:00,
2013-09-24 03:23:00,56.8,38.4,29.12,SE,142,2.7,4.9,50,0.00,,CLR,0.00,VWS V14.01,2013-09-24 08:23:00,
2013-09-24 03:25:00,56.7,38.2,29.12,SE,139,3.6,5.4,50,0.00,,CLR,0.00,VWS V14.01,2013-09-24 08:25:00,
2013-09-24 03:26:00,56.7,38.2,29.12,SE,124,2.7,4.0,50,0.00,,CLR,0.00,VWS V14.01,2013-09-24 08:26:00,
2013-09-24 03:27:00,56.7,38.2,29.12,East,91,5.8,5.8,50,0.00,,CLR,0.00,VWS V14.01,2013-09-24 08:27:00,
2013-09-24 03:29:00,56.8,38.4,29.12,SE,126,4.0,4.0,50,0.00,,CLR,0.00,VWS V14.01,2013-09-24 08:29:00,
2013-09-24 03:30:00,56.7,38.2,29.12,ESE,111,4.0,4.0,50,0.00,,CLR,0.00,VWS V14.01,2013-09-24 08:30:00,
2013-09-24 03:31:00,56.7,38.2,29.12,SE,136,3.6,3.6,50,0.00,,CLR,0.00,VWS V14.01,2013-09-24 08:31:00,
2013-09-24 03:32:00,56.7,38.2,29.12,ESE,109,2.7,4.0,50,0.00,,CLR,0.00,VWS V14.01,2013-09-24 08:32:00,
2013-09-24 03:34:00,56.7,38.2,29.12,ESE,117,3.1,3.1,50,0.00,,CLR,0.00,VWS V14.01,2013-09-24 08:34:00,
2013-09-24 03:35:00,56.7,38.2,29.12,ESE,110,0.0,0.0,50,0.00,,CLR,0.00,VWS V14.01,2013-09-24 08:35:00,
2013-09-24 03:36:00,56.7,38.2,29.12,SE,131,2.7,3.1,50,0.00,,CLR,0.00,VWS V14.01,2013-09-24 08:36:00,
2013-09-24 03:37:00,56.7,38.2,29.12,ESE,112,3.1,3.1,50,0.00,,CLR,0.00,VWS V14.01,2013-09-24 08:37:00,
2013-09-24 03:38:00,56.7,38.2,29.09,East,98,2.7,4.9,50,0.00,,CLR,0.00,VWS V14.01,2013-09-24 08:38:00,
2013-09-24 03:40:00,56.7,38.2,29.09,ESE,122,2.7,4.0,50,0.00,,CLR,0.00,VWS V14.01,2013-09-24 08:40:00,
2013-09-24 03:41:00,56.7,38.2,29.09,East,93,2.7,2.7,50,0.00,,CLR,0.00,VWS V14.01,2013-09-24 08:41:00,
2013-09-24 03:42:00,56.7,38.2,29.09,ESE,103,0.0,4.0,50,0.00,,CLR,0.00,VWS V14.01,2013-09-24 08:42:00,
2013-09-24 03:44:00,56.5,38.1,29.09,East,88,2.7,2.7,50,0.00,,CLR,0.00,VWS V14.01,2013-09-24 08:44:00,
2013-09-24 03:46:00,56.5,38.1,29.09,East,88,2.7,2.7,50,0.00,,CLR,0.00,VWS V14.01,2013-09-24 08:46:00,
2013-09-24 03:47:00,56.3,37.9,29.09,East,95,0.0,2.7,50,0.00,,CLR,0.00,VWS V14.01,2013-09-24 08:47:00,
2013-09-24 03:49:00,56.3,37.9,29.09,SSW,211,2.7,5.4,50,0.00,,CLR,0.00,VWS V14.01,2013-09-24 08:49:00,
2013-09-24 03:51:00,56.3,37.9,29.09,East,97,0.0,2.7,50,0.00,,CLR,0.00,VWS V14.01,2013-09-24 08:51:00,
2013-09-24 03:52:00,56.3,37.9,29.09,East,97,0.0,0.0,50,0.00,,CLR,0.00,VWS V14.01,2013-09-24 08:52:00,
2013-09-24 03:53:00,56.1,37.8,29.12,ESE,104,0.0,0.0,50,0.00,,CLR,0.00,VWS V14.01,2013-09-24 08:53:00,
2013-09-24 03:54:00,56.1,37.8,29.12,ESE,103,0.0,0.0,50,0.00,,CLR,0.00,VWS V14.01,2013-09-24 08:54:00,
2013-09-24 03:55:00,56.1,37.8,29.12,ESE,103,0.0,0.0,50,0.00,,CLR,0.00,VWS V14.01,2013-09-24 08:55:00,
2013-09-24 03:57:00,55.9,37.6,29.12,SE,125,0.0,0.0,50,0.00,,CLR,0.00,VWS V14.01,2013-09-24 08:57:00,
2013-09-24 03:58:00,55.9,37.6,29.12,SE,126,3.1,3.1,50,0.00,,CLR,0.00,VWS V14.01,2013-09-24 08:58:00,
2013-09-24 04:00:00,55.8,37.4,29.12,SE,126,0.0,0.0,50,0.00,,CLR,0.00,VWS V14.01,2013-09-24 09:00:00,
2013-09-24 04:02:00,55.8,38.4,29.12,SE,126,0.0,0.0,52,0.00,,CLR,0.00,VWS V14.01,2013-09-24 09:02:00,
2013-09-24 04:03:00,55.6,38.2,29.12,SE,126,0.0,0.0,52,0.00,,CLR,0.00,VWS V14.01,2013-09-24 09:03:00,
2013-09-24 04:05:00,55.4,38.1,29.12,SE,127,0.0,0.0,52,0.00,,CLR,0.00,VWS V14.01,2013-09-24 09:05:00,
2013-09-24 04:08:00,55.2,37.9,29.12,SE,127,0.0,0.0,52,0.00,,CLR,0.00,VWS V14.01,2013-09-24 09:08:00,
2013-09-24 04:10:00,55.2,37.9,29.12,SE,129,0.0,0.0,52,0.00,,CLR,0.00,VWS V14.01,2013-09-24 09:10:00,
2013-09-24 04:11:00,55.0,37.8,29.12,SE,129,0.0,0.0,52,0.00,,CLR,0.00,VWS V14.01,2013-09-24 09:11:00,
2013-09-24 04:12:00,55.0,37.8,29.12,SE,129,0.0,0.0,52,0.00,,CLR,0.00,VWS V14.01,2013-09-24 09:12:00,
2013-09-24 04:13:00,55.0,38.7,29.12,SE,129,0.0,0.0,54,0.00,,CLR,0.00,VWS V14.01,2013-09-24 09:13:00,
2013-09-24 04:16:00,54.9,38.5,29.12,SE,129,0.0,0.0,54,0.00,,CLR,0.00,VWS V14.01,2013-09-24 09:16:00,
2013-09-24 04:17:00,54.9,38.5,29.12,SE,129,0.0,0.0,54,0.00,,CLR,0.00,VWS V14.01,2013-09-24 09:17:00,
2013-09-24 04:19:00,54.9,38.5,29.12,SE,130,0.0,0.0,54,0.00,,CLR,0.00,VWS V14.01,2013-09-24 09:19:00,
2013-09-24 04:22:00,54.9,38.5,29.12,SE,130,0.0,0.0,54,0.00,,CLR,0.00,VWS V14.01,2013-09-24 09:22:00,
2013-09-24 04:23:00,54.9,39.5,29.12,SE,130,0.0,0.0,56,0.00,,CLR,0.00,VWS V14.01,2013-09-24 09:23:00,
2013-09-24 04:24:00,54.9,39.5,29.12,East,82,2.2,2.2,56,0.00,,CLR,0.00,VWS V14.01,2013-09-24 09:24:00,
2013-09-24 04:27:00,54.9,39.5,29.12,ESE,103,2.2,4.0,56,0.00,,CLR,0.00,VWS V14.01,2013-09-24 09:27:00,
2013-09-24 04:28:00,54.9,39.5,29.12,ESE,104,3.1,3.1,56,0.00,,CLR,0.00,VWS V14.01,2013-09-24 09:28:00,
2013-09-24 04:29:00,54.9,39.5,29.12,East,100,3.1,3.1,56,0.00,,CLR,0.00,VWS V14.01,2013-09-24 09:29:00,
2013-09-24 04:31:00,54.9,39.5,29.12,ESE,110,0.0,2.7,56,0.00,,CLR,0.00,VWS V14.01,2013-09-24 09:31:00,
2013-09-24 04:33:00,54.9,39.5,29.12,ESE,109,0.0,0.0,56,0.00,,CLR,0.00,VWS V14.01,2013-09-24 09:33:00,
2013-09-24 04:34:00,54.9,39.5,29.12,ESE,116,2.7,2.7,56,0.00,,CLR,0.00,VWS V14.01,2013-09-24 09:34:00,
2013-09-24 04:35:00,54.9,39.5,29.12,ESE,114,2.7,2.7,56,0.00,,CLR,0.00,VWS V14.01,2013-09-24 09:35:00,
2013-09-24 04:36:00,55.0,39.7,29.12,ENE,69,3.1,4.0,56,0.00,,CLR,0.00,VWS V14.01,2013-09-24 09:36:00,
2013-09-24 04:38:00,55.0,39.7,29.12,East,100,2.2,2.2,56,0.00,,CLR,0.00,VWS V14.01,2013-09-24 09:38:00,
2013-09-24 04:40:00,55.0,39.7,29.12,ESE,115,3.6,4.0,56,0.00,,CLR,0.00,VWS V14.01,2013-09-24 09:40:00,
2013-09-24 04:41:00,55.0,39.7,29.12,ESE,118,3.1,4.0,56,0.00,,CLR,0.00,VWS V14.01,2013-09-24 09:41:00,
2013-09-24 04:42:00,55.0,40.5,29.12,ESE,109,2.7,3.6,58,0.00,,CLR,0.00,VWS V14.01,2013-09-24 09:42:00,
2013-09-24 04:43:00,55.0,40.5,29.12,ESE,108,3.6,4.0,58,0.00,,CLR,0.00,VWS V14.01,2013-09-24 09:43:00,
2013-09-24 04:45:00,55.0,40.5,29.12,ESE,115,2.7,3.6,58,0.00,,CLR,0.00,VWS V14.01,2013-09-24 09:45:00,
2013-09-24 04:46:00,55.2,40.7,29.12,SE,132,0.0,0.0,58,0.00,,CLR,0.00,VWS V14.01,2013-09-24 09:46:00,
2013-09-24 04:48:00,55.2,40.7,29.12,ESE,105,3.6,3.6,58,0.00,,CLR,0.00,VWS V14.01,2013-09-24 09:48:00,
2013-09-24 04:51:00,55.2,40.7,29.12,SE,132,4.9,5.8,58,0.00,,CLR,0.00,VWS V14.01,2013-09-24 09:51:00,
2013-09-24 04:52:00,55.2,39.8,29.12,SE,126,3.1,3.1,56,0.00,,CLR,0.00,VWS V14.01,2013-09-24 09:52:00,
2013-09-24 04:53:00,55.2,39.8,29.12,ESE,111,3.1,3.1,56,0.00,,CLR,0.00,VWS V14.01,2013-09-24 09:53:00,
2013-09-24 04:54:00,55.2,39.8,29.12,SE,129,3.6,3.6,56,0.00,,CLR,0.00,VWS V14.01,2013-09-24 09:54:00,
2013-09-24 04:56:00,55.2,39.8,29.12,SSE,149,2.7,5.4,56,0.00,,CLR,0.00,VWS V14.01,2013-09-24 09:56:00,
2013-09-24 04:57:00,55.2,39.8,29.12,SE,128,2.2,4.0,56,0.00,,CLR,0.00,VWS V14.01,2013-09-24 09:57:00,
2013-09-24 04:58:00,55.2,40.7,29.12,ESE,120,3.6,3.6,58,0.00,,CLR,0.00,VWS V14.01,2013-09-24 09:58:00,
2013-09-24 04:59:00,55.0,40.5,29.12,SE,134,2.2,3.6,58,0.00,,CLR,0.00,VWS V14.01,2013-09-24 09:59:00,
2013-09-24 05:01:00,55.0,40.5,29.12,SE,132,3.6,6.3,58,0.00,,CLR,0.00,VWS V14.01,2013-09-24 10:01:00,
2013-09-24 05:02:00,55.0,40.5,29.12,SE,131,2.7,5.8,58,0.00,,CLR,0.00,VWS V14.01,2013-09-24 10:02:00,
2013-09-24 05:05:00,55.0,40.5,29.12,SE,126,2.7,3.6,58,0.00,,CLR,0.00,VWS V14.01,2013-09-24 10:05:00,
2013-09-24 05:07:00,55.0,40.5,29.12,SE,127,2.7,4.0,58,0.00,,CLR,0.00,VWS V14.01,2013-09-24 10:07:00,
2013-09-24 05:08:00,55.0,40.5,29.12,SSE,148,5.8,5.8,58,0.00,,CLR,0.00,VWS V14.01,2013-09-24 10:08:00,
2013-09-24 05:11:00,54.9,40.4,29.12,ESE,106,2.2,4.5,58,0.00,,CLR,0.00,VWS V14.01,2013-09-24 10:11:00,
2013-09-24 05:12:00,54.9,40.4,29.12,SE,141,0.0,0.0,58,0.00,,CLR,0.00,VWS V14.01,2013-09-24 10:12:00,
2013-09-24 05:13:00,54.9,40.4,29.12,ESE,123,2.7,3.1,58,0.00,,CLR,0.00,VWS V14.01,2013-09-24 10:13:00,
2013-09-24 05:16:00,54.9,40.4,29.12,SE,133,3.1,3.1,58,0.00,,CLR,0.00,VWS V14.01,2013-09-24 10:16:00,
2013-09-24 05:18:00,54.9,41.2,29.12,SE,130,2.2,3.6,60,0.00,,CLR,0.00,VWS V14.01,2013-09-24 10:18:00,
2013-09-24 05:19:00,54.9,41.2,29.12,SE,127,2.7,3.1,60,0.00,,CLR,0.00,VWS V14.01,2013-09-24 10:19:00,
2013-09-24 05:20:00,54.7,41.1,29.12,SSE,148,3.1,4.0,60,0.00,,CLR,0.00,VWS V14.01,2013-09-24 10:20:00,
2013-09-24 05:21:00,54.9,41.2,29.12,SE,139,3.6,4.9,60,0.00,,CLR,0.00,VWS V14.01,2013-09-24 10:21:00,
2013-09-24 05:24:00,54.7,41.1,29.12,SE,128,3.1,4.9,60,0.00,,CLR,0.00,VWS V14.01,2013-09-24 10:24:00,
2013-09-24 05:25:00,54.9,41.2,29.12,ESE,105,3.1,4.9,60,0.00,,CLR,0.00,VWS V14.01,2013-09-24 10:25:00,
2013-09-24 05:26:00,54.9,41.2,29.12,ESE,120,3.6,3.6,60,0.00,,CLR,0.00,VWS V14.01,2013-09-24 10:26:00,
2013-09-24 05:30:00,54.9,41.2,29.12,ESE,109,2.7,4.0,60,0.00,,CLR,0.00,VWS V14.01,2013-09-24 10:30:00,
2013-09-24 05:31:00,54.9,41.2,29.12,SE,144,3.6,4.0,60,0.00,,CLR,0.00,VWS V14.01,2013-09-24 10:31:00,
2013-09-24 05:32:00,54.9,41.2,29.12,ESE,105,4.9,4.9,60,0.00,,CLR,0.00,VWS V14.01,2013-09-24 10:32:00,
2013-09-24 05:36:00,54.9,41.2,29.12,SSE,154,2.2,4.0,60,0.00,,CLR,0.00,VWS V14.01,2013-09-24 10:36:00,
2013-09-24 05:37:00,54.9,41.2,29.12,SE,128,3.6,3.6,60,0.00,,CLR,0.00,VWS V14.01,2013-09-24 10:37:00,
2013-09-24 05:41:00,54.9,42.1,29.12,ESE,113,5.4,5.4,62,0.00,,CLR,0.00,VWS V14.01,2013-09-24 10:41:00,
2013-09-24 05:42:00,54.9,42.1,29.12,ESE,108,4.0,4.0,62,0.00,,CLR,0.00,VWS V14.01,2013-09-24 10:42:00,
2013-09-24 05:43:00,54.9,42.1,29.12,ESE,120,2.7,4.0,62,0.00,,CLR,0.00,VWS V14.01,2013-09-24 10:43:00,
2013-09-24 05:47:00,54.9,42.1,29.12,ESE,119,2.7,3.1,62,0.00,,CLR,0.00,VWS V14.01,2013-09-24 10:47:00,
2013-09-24 05:48:00,54.9,42.1,29.12,SE,141,2.7,4.0,62,0.00,,CLR,0.00,VWS V14.01,2013-09-24 10:48:00,
2013-09-24 05:52:00,54.9,42.1,29.12,ESE,118,0.0,4.0,62,0.00,,CLR,0.00,VWS V14.01,2013-09-24 10:52:00,
2013-09-24 05:53:00,54.7,41.9,29.12,SE,137,0.0,5.8,62,0.00,,CLR,0.00,VWS V14.01,2013-09-24 10:53:00,
2013-09-24 05:54:00,54.7,41.9,29.12,ESE,113,3.6,3.6,62,0.00,,CLR,0.00,VWS V14.01,2013-09-24 10:54:00,
2013-09-24 05:57:00,54.7,41.9,29.12,ESE,123,3.6,4.0,62,0.00,,CLR,0.00,VWS V14.01,2013-09-24 10:57:00,
2013-09-24 05:58:00,54.9,42.9,29.12,SSE,148,5.8,5.8,64,0.00,,CLR,0.00,VWS V14.01,2013-09-24 10:58:00,
2013-09-24 05:59:00,54.9,42.9,29.12,SE,127,2.7,3.6,64,0.00,,CLR,0.00,VWS V14.01,2013-09-24 10:59:00,
2013-09-24 06:00:00,54.9,42.9,29.12,ESE,104,3.1,3.1,64,0.00,,CLR,0.00,VWS V14.01,2013-09-24 11:00:00,
2013-09-24 06:03:00,54.9,42.9,29.12,SSE,147,3.6,4.0,64,0.00,,CLR,0.00,VWS V14.01,2013-09-24 11:03:00,
2013-09-24 06:04:00,54.9,42.9,29.12,East,80,4.9,4.9,64,0.00,,CLR,0.00,VWS V14.01,2013-09-24 11:04:00,
2013-09-24 06:05:00,54.9,42.9,29.12,SSE,148,4.0,4.0,64,0.00,,CLR,0.00,VWS V14.01,2013-09-24 11:05:00,
2013-09-24 06:06:00,54.9,42.9,29.12,SE,130,4.0,4.0,64,0.00,,CLR,0.00,VWS V14.01,2013-09-24 11:06:00,
2013-09-24 06:08:00,55.0,43.1,29.12,ESE,119,4.0,4.0,64,0.00,,CLR,0.00,VWS V14.01,2013-09-24 11:08:00,
2013-09-24 06:09:00,55.0,43.1,29.12,SE,137,3.1,4.5,64,0.00,,CLR,0.00,VWS V14.01,2013-09-24 11:09:00,
2013-09-24 06:10:00,55.0,43.1,29.12,ESE,114,2.7,3.1,64,0.00,,CLR,0.00,VWS V14.01,2013-09-24 11:10:00,
2013-09-24 06:11:00,55.0,43.1,29.12,ESE,118,3.6,4.0,64,0.00,,CLR,0.00,VWS V14.01,2013-09-24 11:11:00,
2013-09-24 06:13:00,55.0,43.1,29.12,ESE,109,3.1,4.9,64,0.00,,CLR,0.00,VWS V14.01,2013-09-24 11:13:00,
2013-09-24 06:14:00,55.0,43.1,29.12,SE,132,3.6,4.9,64,0.00,,CLR,0.00,VWS V14.01,2013-09-24 11:14:00,
2013-09-24 06:15:00,55.0,43.1,29.12,SE,131,3.6,3.6,64,0.00,,CLR,0.00,VWS V14.01,2013-09-24 11:15:00,
2013-09-24 06:18:00,55.0,43.1,29.12,SSE,167,3.6,3.6,64,0.00,,CLR,0.00,VWS V14.01,2013-09-24 11:18:00,
2013-09-24 06:19:00,55.0,43.1,29.12,East,88,2.7,3.1,64,0.00,,CLR,0.00,VWS V14.01,2013-09-24 11:19:00,
2013-09-24 06:20:00,55.0,43.1,29.12,ESE,113,2.7,3.1,64,0.00,,CLR,0.00,VWS V14.01,2013-09-24 11:20:00,
2013-09-24 06:21:00,55.0,43.1,29.12,SE,134,3.1,5.4,64,0.00,,CLR,0.00,VWS V14.01,2013-09-24 11:21:00,
2013-09-24 06:24:00,55.0,43.1,29.12,ESE,112,3.6,3.6,64,0.00,,CLR,0.00,VWS V14.01,2013-09-24 11:24:00,
2013-09-24 06:25:00,55.0,43.1,29.12,ESE,120,4.0,4.0,64,0.00,,CLR,0.00,VWS V14.01,2013-09-24 11:25:00,
2013-09-24 06:26:00,55.0,43.9,29.12,SE,124,3.1,4.9,66,0.00,,CLR,0.00,VWS V14.01,2013-09-24 11:26:00,
2013-09-24 06:29:00,55.0,43.9,29.12,East,99,2.7,3.1,66,0.00,,CLR,0.00,VWS V14.01,2013-09-24 11:29:00,
2013-09-24 06:30:00,55.0,43.9,29.12,SE,129,2.7,3.1,66,0.00,,CLR,0.00,VWS V14.01,2013-09-24 11:30:00,
2013-09-24 06:31:00,55.0,43.9,29.12,SE,128,3.1,3.6,66,0.00,,CLR,0.00,VWS V14.01,2013-09-24 11:31:00,
2013-09-24 06:32:00,55.0,43.9,29.12,SE,128,2.7,3.1,66,0.00,,CLR,0.00,VWS V14.01,2013-09-24 11:32:00,
2013-09-24 06:34:00,55.0,43.9,29.12,ESE,120,3.1,5.8,66,0.00,,CLR,0.00,VWS V14.01,2013-09-24 11:34:00,
2013-09-24 06:36:00,55.0,43.9,29.12,SE,140,3.1,3.1,66,0.00,,CLR,0.00,VWS V14.01,2013-09-24 11:36:00,
2013-09-24 06:37:00,54.9,43.7,29.12,SE,129,2.7,3.1,66,0.00,,CLR,0.00,VWS V14.01,2013-09-24 11:37:00,
2013-09-24 06:38:00,54.9,43.7,29.12,East,98,3.1,3.6,66,0.00,,CLR,0.00,VWS V14.01,2013-09-24 11:38:00,
2013-09-24 06:39:00,54.9,43.7,29.12,East,97,4.0,4.0,66,0.00,,CLR,0.00,VWS V14.01,2013-09-24 11:39:00,
2013-09-24 06:41:00,54.9,43.7,29.12,SE,133,0.0,2.7,66,0.00,,CLR,0.00,VWS V14.01,2013-09-24 11:41:00,
2013-09-24 06:42:00,54.9,43.7,29.12,ESE,116,3.6,4.9,66,0.00,,CLR,0.00,VWS V14.01,2013-09-24 11:42:00,
2013-09-24 06:43:00,54.7,43.6,29.12,ESE,107,3.6,3.6,66,0.00,,CLR,0.00,VWS V14.01,2013-09-24 11:43:00,
2013-09-24 06:44:00,54.7,43.6,29.12,ESE,108,0.0,4.0,66,0.00,,CLR,0.00,VWS V14.01,2013-09-24 11:44:00,
2013-09-24 06:46:00,54.7,43.6,29.12,ESE,123,3.6,3.6,66,0.00,,CLR,0.00,VWS V14.01,2013-09-24 11:46:00,
2013-09-24 06:47:00,54.7,43.6,29.12,SE,124,3.1,3.6,66,0.00,,CLR,0.00,VWS V14.01,2013-09-24 11:47:00,
2013-09-24 06:49:00,54.5,43.4,29.12,ESE,102,2.7,4.0,66,0.00,,CLR,0.00,VWS V14.01,2013-09-24 11:49:00,
2013-09-24 06:51:00,54.5,44.2,29.12,ESE,105,2.7,4.0,68,0.00,,CLR,0.00,VWS V14.01,2013-09-24 11:51:00,
2013-09-24 06:52:00,54.5,44.2,29.12,SE,140,0.0,2.2,68,0.00,,CLR,0.00,VWS V14.01,2013-09-24 11:52:00,
2013-09-24 06:55:00,54.5,44.9,29.12,ESE,118,2.7,2.7,70,0.00,,CLR,0.00,VWS V14.01,2013-09-24 11:55:00,
2013-09-24 06:56:00,54.5,44.9,29.12,ESE,102,2.7,2.7,70,0.00,,CLR,0.00,VWS V14.01,2013-09-24 11:56:00,
2013-09-24 06:58:00,54.5,44.9,29.12,ESE,110,2.7,2.7,70,0.00,,CLR,0.00,VWS V14.01,2013-09-24 11:58:00,
2013-09-24 07:01:00,54.3,44.8,29.12,ESE,117,0.0,0.0,70,0.00,,CLR,0.00,VWS V14.01,2013-09-24 12:01:00,
2013-09-24 07:02:00,54.3,44.8,29.12,South,172,5.4,5.4,70,0.00,,CLR,0.00,VWS V14.01,2013-09-24 12:02:00,
2013-09-24 07:03:00,54.3,44.8,29.12,ESE,115,0.0,4.9,70,0.00,,CLR,0.00,VWS V14.01,2013-09-24 12:03:00,
2013-09-24 07:04:00,54.3,44.8,29.12,ESE,111,2.7,2.7,70,0.00,,CLR,0.00,VWS V14.01,2013-09-24 12:04:00,
2013-09-24 07:06:00,54.3,44.8,29.12,East,93,3.6,3.6,70,0.00,,CLR,0.00,VWS V14.01,2013-09-24 12:06:00,
2013-09-24 07:07:00,54.3,44.8,29.12,ESE,109,2.7,3.6,70,0.00,,CLR,0.00,VWS V14.01,2013-09-24 12:07:00,
2013-09-24 07:08:00,54.3,45.5,29.12,ESE,116,3.6,3.6,72,0.00,,CLR,0.00,VWS V14.01,2013-09-24 12:08:00,
2013-09-24 07:09:00,54.3,45.5,29.12,ESE,114,3.1,3.6,72,0.00,,CLR,0.00,VWS V14.01,2013-09-24 12:09:00,
2013-09-24 07:12:00,54.5,45.7,29.12,East,97,0.0,0.0,72,0.00,,CLR,0.00,VWS V14.01,2013-09-24 12:12:00,
2013-09-24 07:14:00,54.5,45.7,29.12,ESE,112,3.1,3.1,72,0.00,,CLR,0.00,VWS V14.01,2013-09-24 12:14:00,
2013-09-24 07:15:00,54.5,45.7,29.12,SE,142,0.0,2.7,72,0.00,,CLR,0.00,VWS V14.01,2013-09-24 12:15:00,
2013-09-24 07:17:00,54.5,45.7,29.12,SE,134,3.1,4.0,72,0.00,,CLR,0.00,VWS V14.01,2013-09-24 12:17:00,
2013-09-24 07:18:00,54.5,45.7,29.12,SE,131,0.0,3.1,72,0.00,,CLR,0.00,VWS V14.01,2013-09-24 12:18:00,
2013-09-24 07:19:00,54.5,45.7,29.12,ESE,110,3.6,3.6,72,0.00,,CLR,0.00,VWS V14.01,2013-09-24 12:19:00,
2013-09-24 07:21:00,54.5,45.7,29.12,ESE,108,0.0,3.1,72,0.00,,CLR,0.00,VWS V14.01,2013-09-24 12:21:00,
2013-09-24 07:22:00,54.5,45.7,29.12,ESE,103,4.0,4.0,72,0.00,,CLR,0.00,VWS V14.01,2013-09-24 12:22:00,
2013-09-24 07:23:00,54.7,45.8,29.12,SSE,155,2.2,2.7,72,0.00,,CLR,0.00,VWS V14.01,2013-09-24 12:23:00,
2013-09-24 07:25:00,54.7,45.8,29.12,SE,127,4.9,4.9,72,0.00,,CLR,0.00,VWS V14.01,2013-09-24 12:25:00,
2013-09-24 07:27:00,54.7,45.8,29.12,SE,133,2.2,4.0,72,0.00,,CLR,0.00,VWS V14.01,2013-09-24 12:27:00,
2013-09-24 07:28:00,54.7,45.8,29.12,ESE,122,3.1,3.1,72,0.00,,CLR,0.00,VWS V14.01,2013-09-24 12:28:00,
2013-09-24 07:30:00,54.9,46.0,29.12,SSE,153,3.1,4.0,72,0.00,,CLR,0.00,VWS V14.01,2013-09-24 12:30:00,
2013-09-24 07:31:00,54.9,46.0,29.12,ESE,115,4.9,4.9,72,0.00,,CLR,0.00,VWS V14.01,2013-09-24 12:31:00,
2013-09-24 07:32:00,54.9,46.0,29.12,SE,145,3.1,4.9,72,0.00,,CLR,0.00,VWS V14.01,2013-09-24 12:32:00,
2013-09-24 07:33:00,54.9,46.0,29.12,SE,136,3.6,3.6,72,0.00,,CLR,0.00,VWS V14.01,2013-09-24 12:33:00,
2013-09-24 07:36:00,55.0,46.2,29.12,SE,127,2.7,3.6,72,0.00,,CLR,0.00,VWS V14.01,2013-09-24 12:36:00,
2013-09-24 07:37:00,55.2,46.4,29.12,SE,130,3.6,4.0,72,0.00,,CLR,0.00,VWS V14.01,2013-09-24 12:37:00,
2013-09-24 07:38:00,55.2,46.4,29.12,SSE,149,3.1,4.0,72,0.00,,CLR,0.00,VWS V14.01,2013-09-24 12:38:00,
2013-09-24 07:41:00,55.4,46.5,29.12,SE,139,3.1,3.6,72,0.00,,CLR,0.00,VWS V14.01,2013-09-24 12:41:00,
2013-09-24 07:42:00,55.4,46.5,29.12,SSE,148,2.7,3.1,72,0.00,,CLR,0.00,VWS V14.01,2013-09-24 12:42:00,
2013-09-24 07:43:00,55.6,46.7,29.12,SE,144,2.7,4.9,72,0.00,,CLR,0.00,VWS V14.01,2013-09-24 12:43:00,
2013-09-24 07:45:00,55.8,46.1,29.12,ESE,115,2.7,3.6,70,0.00,,CLR,0.00,VWS V14.01,2013-09-24 12:45:00,
2013-09-24 07:46:00,55.8,46.1,29.12,ESE,119,3.1,3.1,70,0.00,,CLR,0.00,VWS V14.01,2013-09-24 12:46:00,
2013-09-24 07:48:00,55.9,46.3,29.12,East,83,3.1,3.1,70,0.00,,CLR,0.00,VWS V14.01,2013-09-24 12:48:00,
2013-09-24 07:49:00,55.9,46.3,29.12,East,83,0.0,3.1,70,0.00,,CLR,0.00,VWS V14.01,2013-09-24 12:49:00,
2013-09-24 07:51:00,55.9,46.3,29.12,SE,128,0.0,4.0,70,0.00,,CLR,0.00,VWS V14.01,2013-09-24 12:51:00,
2013-09-24 07:52:00,55.9,46.3,29.12,SE,128,0.0,4.0,70,0.00,,CLR,0.00,VWS V14.01,2013-09-24 12:52:00,
2013-09-24 07:53:00,56.1,46.5,29.12,East,100,4.9,4.9,70,0.00,,CLR,0.00,VWS V14.01,2013-09-24 12:53:00,
2013-09-24 07:54:00,56.1,46.5,29.12,NE,34,3.1,4.9,70,0.00,,CLR,0.00,VWS V14.01,2013-09-24 12:54:00,
2013-09-24 07:57:00,56.3,46.7,29.12,ESE,115,3.6,3.6,70,0.00,,CLR,0.00,VWS V14.01,2013-09-24 12:57:00,
2013-09-24 07:59:00,56.5,46.8,29.12,ESE,118,4.9,4.9,70,0.00,,CLR,0.00,VWS V14.01,2013-09-24 12:59:00,
2013-09-24 08:02:00,56.7,47.0,29.12,SE,126,4.0,4.0,70,0.00,,CLR,0.00,VWS V14.01,2013-09-24 13:02:00,
2013-09-24 08:04:00,56.8,46.4,29.12,South,190,3.1,3.1,68,0.00,,CLR,0.00,VWS V14.01,2013-09-24 13:04:00,
2013-09-24 08:06:00,57.0,46.6,29.12,ESE,112,2.7,5.4,68,0.00,,CLR,0.00,VWS V14.01,2013-09-24 13:06:00,
2013-09-24 08:08:00,57.2,46.0,29.12,SE,133,3.1,5.8,66,0.00,,CLR,0.00,VWS V14.01,2013-09-24 13:08:00,
2013-09-24 08:09:00,57.2,46.0,29.12,East,100,4.0,5.4,66,0.00,,CLR,0.00,VWS V14.01,2013-09-24 13:09:00,
2013-09-24 08:12:00,57.6,45.5,29.12,East,94,5.4,5.4,64,0.00,,CLR,0.00,VWS V14.01,2013-09-24 13:12:00,
2013-09-24 08:13:00,57.6,44.7,29.12,ESE,117,3.6,5.4,62,0.00,,CLR,0.00,VWS V14.01,2013-09-24 13:13:00,
2013-09-24 08:14:00,57.7,44.8,29.12,SE,126,5.4,5.8,62,0.00,,CLR,0.00,VWS V14.01,2013-09-24 13:14:00,
2013-09-24 08:18:00,58.1,44.3,29.12,SE,139,4.9,5.4,60,0.00,,CLR,0.00,VWS V14.01,2013-09-24 13:18:00,
2013-09-24 08:19:00,58.1,44.3,29.12,SSE,162,5.8,5.8,60,0.00,,CLR,0.00,VWS V14.01,2013-09-24 13:19:00,
2013-09-24 08:20:00,58.1,44.3,29.12,SE,136,3.6,5.8,60,0.00,,CLR,0.00,VWS V14.01,2013-09-24 13:20:00,
2013-09-24 08:21:00,58.5,44.6,29.12,ESE,123,2.7,4.9,60,0.00,,CLR,0.00,VWS V14.01,2013-09-24 13:21:00,
2013-09-24 08:23:00,58.6,43.9,29.09,SE,141,3.6,3.6,58,0.00,,CLR,0.00,VWS V14.01,2013-09-24 13:23:00,
2013-09-24 08:24:00,58.8,44.1,29.09,SSE,149,6.3,6.3,58,0.00,,CLR,0.00,VWS V14.01,2013-09-24 13:24:00,
2013-09-24 08:26:00,59.0,43.3,29.09,SSE,154,2.7,5.4,56,0.00,,CLR,0.00,VWS V14.01,2013-09-24 13:26:00,
2013-09-24 08:29:00,59.4,42.7,29.09,SE,143,5.4,5.4,54,0.00,,CLR,0.00,VWS V14.01,2013-09-24 13:29:00,
2013-09-24 08:30:00,59.5,42.9,29.09,SSE,167,5.4,5.8,54,0.00,,CLR,0.00,VWS V14.01,2013-09-24 13:30:00,
2013-09-24 08:32:00,59.7,42.1,29.09,SE,125,2.7,3.1,52,0.00,,CLR,0.00,VWS V14.01,2013-09-24 13:32:00,
2013-09-24 08:34:00,60.1,42.4,29.09,ESE,114,6.3,6.3,52,0.00,,CLR,0.00,VWS V14.01,2013-09-24 13:34:00,
2013-09-24 08:35:00,60.3,42.6,29.09,ESE,123,2.7,2.7,52,0.00,,CLR,0.00,VWS V14.01,2013-09-24 13:35:00,
2013-09-24 08:36:00,60.3,42.6,29.09,SSE,159,5.4,5.4,52,0.00,,CLR,0.00,VWS V14.01,2013-09-24 13:36:00,
2013-09-24 08:38:00,60.4,41.7,29.12,ESE,120,0.0,3.1,50,0.00,,CLR,0.00,VWS V14.01,2013-09-24 13:38:00,
2013-09-24 08:39:00,60.6,41.9,29.12,ESE,111,3.1,3.6,50,0.00,,CLR,0.00,VWS V14.01,2013-09-24 13:39:00,
2013-09-24 08:41:00,60.8,42.1,29.12,ESE,113,2.7,4.5,50,0.00,,CLR,0.00,VWS V14.01,2013-09-24 13:41:00,
2013-09-24 08:42:00,60.8,42.1,29.12,SE,136,2.2,3.1,50,0.00,,CLR,0.00,VWS V14.01,2013-09-24 13:42:00,
2013-09-24 08:43:00,61.0,42.2,29.12,ESE,111,4.9,5.4,50,0.00,,CLR,0.00,VWS V14.01,2013-09-24 13:43:00,
2013-09-24 08:45:00,61.2,42.4,29.12,SE,146,3.6,4.5,50,0.00,,CLR,0.00,VWS V14.01,2013-09-24 13:45:00,
2013-09-24 08:46:00,61.3,42.6,29.12,South,174,3.6,3.6,50,0.00,,CLR,0.00,VWS V14.01,2013-09-24 13:46:00,
2013-09-24 08:47:00,61.3,42.6,29.12,SE,132,3.1,5.8,50,0.00,,CLR,0.00,VWS V14.01,2013-09-24 13:47:00,
2013-09-24 08:48:00,61.5,42.7,29.12,ESE,105,2.7,2.7,50,0.00,,CLR,0.00,VWS V14.01,2013-09-24 13:48:00,
2013-09-24 08:50:00,61.7,42.9,29.12,SE,131,0.0,3.6,50,0.00,,CLR,0.00,VWS V14.01,2013-09-24 13:50:00,
2013-09-24 08:51:00,61.9,43.1,29.12,SE,145,4.9,4.9,50,0.00,,CLR,0.00,VWS V14.01,2013-09-24 13:51:00,
2013-09-24 08:53:00,62.1,42.2,29.12,SE,138,3.6,8.3,48,0.00,,CLR,0.00,VWS V14.01,2013-09-24 13:53:00,
2013-09-24 08:54:00,62.1,42.2,29.12,SE,130,3.6,4.9,48,0.00,,CLR,0.00,VWS V14.01,2013-09-24 13:54:00,
2013-09-24 08:55:00,62.2,42.3,29.12,ESE,119,3.6,3.6,48,0.00,,CLR,0.00,VWS V14.01,2013-09-24 13:55:00,
2013-09-24 08:58:00,62.8,42.8,29.12,SE,138,4.9,5.8,48,0.00,,CLR,0.00,VWS V14.01,2013-09-24 13:58:00,
2013-09-24 08:59:00,63.0,43.0,29.12,SE,138,0.0,4.9,48,0.00,,CLR,0.00,VWS V14.01,2013-09-24 13:59:00,
2013-09-24 09:00:00,63.0,43.0,29.12,South,178,3.6,3.6,48,0.00,,CLR,0.00,VWS V14.01,2013-09-24 14:00:00,
2013-09-24 09:03:00,63.5,43.5,29.12,SSE,148,3.1,4.9,48,0.00,,CLR,0.00,VWS V14.01,2013-09-24 14:03:00,
2013-09-24 09:04:00,63.7,43.6,29.12,SSE,151,5.8,5.8,48,0.00,,CLR,0.00,VWS V14.01,2013-09-24 14:04:00,
2013-09-24 09:06:00,64.0,42.9,29.12,SSE,154,0.0,3.6,46,0.00,,CLR,0.00,VWS V14.01,2013-09-24 14:06:00,
2013-09-24 09:09:00,64.8,39.9,29.12,SSE,162,7.6,8.7,40,0.00,,CLR,0.00,VWS V14.01,2013-09-24 14:09:00,
2013-09-24 09:11:00,64.9,40.1,29.12,SSE,159,6.3,11.0,40,0.00,,CLR,0.00,VWS V14.01,2013-09-24 14:11:00,
2013-09-24 09:12:00,65.3,37.7,29.12,SE,146,6.3,8.1,36,0.00,,CLR,0.00,VWS V14.01,2013-09-24 14:12:00,
2013-09-24 09:15:00,65.8,38.2,29.12,South,178,5.4,5.4,36,0.00,,CLR,0.00,VWS V14.01,2013-09-24 14:15:00,
2013-09-24 09:16:00,66.2,37.0,29.12,SSE,159,5.8,5.8,34,0.00,,CLR,0.00,VWS V14.01,2013-09-24 14:16:00,
2013-09-24 09:18:00,66.6,37.3,29.12,SSE,166,5.4,8.1,34,0.00,,CLR,0.00,VWS V14.01,2013-09-24 14:18:00,
2013-09-24 09:20:00,66.7,37.5,29.12,SSE,154,5.4,6.3,34,0.00,,CLR,0.00,VWS V14.01,2013-09-24 14:20:00,
2013-09-24 09:21:00,67.1,37.8,29.12,SE,128,5.4,5.4,34,0.00,,CLR,0.00,VWS V14.01,2013-09-24 14:21:00,
2013-09-24 09:23:00,67.5,38.1,29.12,SSE,152,8.1,8.1,34,0.00,,CLR,0.00,VWS V14.01,2013-09-24 14:23:00,
2013-09-24 09:24:00,67.6,38.3,29.12,SSW,192,5.4,6.3,34,0.00,,CLR,0.00,VWS V14.01,2013-09-24 14:24:00,
2013-09-24 09:26:00,68.4,38.9,29.12,SSE,163,4.9,8.7,34,0.00,,CLR,0.00,VWS V14.01,2013-09-24 14:26:00,
2013-09-24 09:28:00,68.7,39.2,29.12,SE,129,8.7,8.7,34,0.00,,CLR,0.00,VWS V14.01,2013-09-24 14:28:00,
2013-09-24 09:29:00,69.1,39.6,29.12,South,173,8.7,8.7,34,0.00,,CLR,0.00,VWS V14.01,2013-09-24 14:29:00,
2013-09-24 09:31:00,69.6,40.0,29.12,SSE,150,6.3,6.3,34,0.00,,CLR,0.00,VWS V14.01,2013-09-24 14:31:00,
2013-09-24 09:32:00,69.6,40.0,29.12,East,85,7.2,7.2,34,0.00,,CLR,0.00,VWS V14.01,2013-09-24 14:32:00,
2013-09-24 09:34:00,69.8,40.2,29.12,ESE,122,3.6,5.8,34,0.00,,CLR,0.00,VWS V14.01,2013-09-24 14:34:00,
2013-09-24 09:35:00,69.8,40.2,29.12,ESE,116,5.8,5.8,34,0.00,,CLR,0.00,VWS V14.01,2013-09-24 14:35:00,
2013-09-24 09:37:00,70.2,40.5,29.12,SSE,148,6.7,10.5,34,0.00,,CLR,0.00,VWS V14.01,2013-09-24 14:37:00,
2013-09-24 09:39:00,70.3,40.7,29.12,East,94,2.7,4.9,34,0.00,,CLR,0.00,VWS V14.01,2013-09-24 14:39:00,
2013-09-24 09:40:00,70.3,40.7,29.12,South,179,10.1,10.1,34,0.00,,CLR,0.00,VWS V14.01,2013-09-24 14:40:00,
2013-09-24 09:43:00,70.3,40.7,29.12,SE,145,4.0,6.3,34,0.00,,CLR,0.00,VWS V14.01,2013-09-24 14:43:00,
2013-09-24 09:44:00,70.3,40.7,29.12,SSE,158,5.8,8.7,34,0.00,,CLR,0.00,VWS V14.01,2013-09-24 14:44:00,
2013-09-24 09:45:00,70.2,40.5,29.12,SSE,154,5.4,8.1,34,0.00,,CLR,0.00,VWS V14.01,2013-09-24 14:45:00,
2013-09-24 09:48:00,70.2,40.5,29.12,SE,143,3.6,6.3,34,0.00,,CLR,0.00,VWS V14.01,2013-09-24 14:48:00,
2013-09-24 09:50:00,70.0,40.3,29.12,SE,131,6.3,7.6,34,0.00,,CLR,0.00,VWS V14.01,2013-09-24 14:50:00,
2013-09-24 09:51:00,70.2,40.5,29.12,South,179,4.9,6.7,34,0.00,,CLR,0.00,VWS V14.01,2013-09-24 14:51:00,
2013-09-24 09:53:00,70.7,41.0,29.12,SE,146,5.4,5.4,34,0.00,,CLR,0.00,VWS V14.01,2013-09-24 14:53:00,
2013-09-24 09:55:00,71.1,41.3,29.12,ESE,123,4.9,5.8,34,0.00,,CLR,0.00,VWS V14.01,2013-09-24 14:55:00,
2013-09-24 09:56:00,71.1,41.3,29.12,ESE,123,4.9,4.9,34,0.00,,CLR,0.00,VWS V14.01,2013-09-24 14:56:00,
2013-09-24 09:57:00,70.9,41.1,29.12,SSE,149,8.7,8.7,34,0.00,,CLR,0.00,VWS V14.01,2013-09-24 14:57:00,
2013-09-24 09:59:00,70.7,41.0,29.12,SSE,158,6.3,7.6,34,0.00,,CLR,0.00,VWS V14.01,2013-09-24 14:59:00,
2013-09-24 10:01:00,70.7,41.0,29.12,ESE,120,5.4,6.3,34,0.00,,SCT050,0.00,VWS V14.01,2013-09-24 15:01:00,
2013-09-24 10:02:00,70.9,41.1,29.12,SSE,156,4.9,5.4,34,0.00,,SCT050,0.00,VWS V14.01,2013-09-24 15:02:00,
2013-09-24 10:04:00,71.2,41.5,29.12,ESE,113,5.4,5.4,34,0.00,,SCT050,0.00,VWS V14.01,2013-09-24 15:04:00,
2013-09-24 10:06:00,71.4,41.6,29.12,SSE,163,6.3,10.5,34,0.00,,SCT050,0.00,VWS V14.01,2013-09-24 15:06:00,
2013-09-24 10:07:00,71.6,40.2,29.12,South,171,6.3,6.3,32,0.00,,SCT050,0.00,VWS V14.01,2013-09-24 15:07:00,
2013-09-24 10:08:00,71.8,40.4,29.12,SE,132,8.3,8.3,32,0.00,,SCT050,0.00,VWS V14.01,2013-09-24 15:08:00,
2013-09-24 10:10:00,71.8,40.4,29.12,SSE,150,8.3,8.3,32,0.00,,SCT050,0.00,VWS V14.01,2013-09-24 15:10:00,
2013-09-24 10:11:00,72.0,40.5,29.12,SE,126,2.2,6.3,32,0.00,,SCT050,0.00,VWS V14.01,2013-09-24 15:11:00,
2013-09-24 10:12:00,72.1,40.7,29.12,SSE,153,4.9,4.9,32,0.00,,SCT050,0.00,VWS V14.01,2013-09-24 15:12:00,
2013-09-24 10:14:00,72.5,41.0,29.12,East,79,3.6,3.6,32,0.00,,SCT050,0.00,VWS V14.01,2013-09-24 15:14:00,
2013-09-24 10:15:00,72.5,41.0,29.12,ESE,108,3.1,3.1,32,0.00,,SCT050,0.00,VWS V14.01,2013-09-24 15:15:00,
2013-09-24 10:18:00,72.7,41.2,29.12,SSE,150,5.8,7.6,32,0.00,,SCT050,0.00,VWS V14.01,2013-09-24 15:18:00,
2013-09-24 10:19:00,72.9,41.3,29.12,SE,143,8.7,10.1,32,0.00,,SCT050,0.00,VWS V14.01,2013-09-24 15:19:00,
2013-09-24 10:20:00,72.9,41.3,29.12,SSE,165,8.1,8.7,32,0.00,,SCT050,0.00,VWS V14.01,2013-09-24 15:20:00,
2013-09-24 10:21:00,72.9,41.3,29.12,SE,134,5.4,8.3,32,0.00,,SCT050,0.00,VWS V14.01,2013-09-24 15:21:00,
2013-09-24 10:23:00,73.0,41.5,29.09,SE,129,3.1,6.3,32,0.00,,SCT050,0.00,VWS V14.01,2013-09-24 15:23:00,
2013-09-24 10:25:00,73.4,41.8,29.09,East,98,3.6,6.3,32,0.00,,SCT050,0.00,VWS V14.01,2013-09-24 15:25:00,
2013-09-24 10:26:00,73.4,41.8,29.09,SE,125,5.8,5.8,32,0.00,,SCT050,0.00,VWS V14.01,2013-09-24 15:26:00,
2013-09-24 10:28:00,73.8,42.1,29.09,East,85,3.1,5.4,32,0.00,,SCT050,0.00,VWS V14.01,2013-09-24 15:28:00,
2013-09-24 10:30:00,73.8,42.1,29.09,SE,142,4.0,6.3,32,0.00,,SCT050,0.00,VWS V14.01,2013-09-24 15:30:00,
2013-09-24 10:31:00,73.9,42.2,29.09,SE,143,2.7,3.6,32,0.00,,SCT050,0.00,VWS V14.01,2013-09-24 15:31:00,
2013-09-24 10:32:00,73.9,42.2,29.09,SE,142,6.3,9.6,32,0.00,,SCT050,0.00,VWS V14.01,2013-09-24 15:32:00,
2013-09-24 10:33:00,73.9,42.2,29.09,South,169,4.9,6.3,32,0.00,,SCT050,0.00,VWS V14.01,2013-09-24 15:33:00,
2013-09-24 10:35:00,74.1,42.4,29.09,SSW,210,8.1,8.7,32,0.00,,SCT050,0.00,VWS V14.01,2013-09-24 15:35:00,
2013-09-24 10:36:00,74.1,42.4,29.09,SE,139,3.1,9.6,32,0.00,,SCT050,0.00,VWS V14.01,2013-09-24 15:36:00,
2013-09-24 10:37:00,74.3,42.6,29.09,SE,139,5.8,5.8,32,0.00,,SCT050,0.00,VWS V14.01,2013-09-24 15:37:00,
2013-09-24 10:39:00,74.5,42.7,29.09,South,180,3.1,4.9,32,0.00,,SCT050,0.00,VWS V14.01,2013-09-24 15:39:00,
2013-09-24 10:40:00,74.5,42.7,29.09,South,188,8.7,8.7,32,0.00,,SCT050,0.00,VWS V14.01,2013-09-24 15:40:00,
2013-09-24 10:41:00,74.7,42.9,29.09,SSE,152,2.7,8.7,32,0.00,,SCT050,0.00,VWS V14.01,2013-09-24 15:41:00,
2013-09-24 10:43:00,75.0,43.2,29.09,SSW,207,2.7,3.1,32,0.00,,SCT050,0.00,VWS V14.01,2013-09-24 15:43:00,
2013-09-24 10:44:00,75.2,41.7,29.09,ESE,103,7.6,7.6,30,0.00,,SCT050,0.00,VWS V14.01,2013-09-24 15:44:00,
2013-09-24 10:46:00,75.6,42.0,29.09,ESE,117,3.6,3.6,30,0.00,,SCT050,0.00,VWS V14.01,2013-09-24 15:46:00,
2013-09-24 10:47:00,75.7,42.1,29.09,SE,144,4.0,4.0,30,0.00,,SCT050,0.00,VWS V14.01,2013-09-24 15:47:00,
2013-09-24 10:48:00,75.7,42.1,29.09,ESE,113,5.8,5.8,30,0.00,,SCT050,0.00,VWS V14.01,2013-09-24 15:48:00,
2013-09-24 10:50:00,75.7,42.1,29.09,ESE,104,3.1,3.6,30,0.00,,SCT050,0.00,VWS V14.01,2013-09-24 15:50:00,
2013-09-24 10:51:00,75.9,42.3,29.09,East,83,3.1,5.8,30,0.00,,SCT050,0.00,VWS V14.01,2013-09-24 15:51:00,
2013-09-24 10:52:00,75.9,42.3,29.09,SE,144,4.9,6.3,30,0.00,,SCT050,0.00,VWS V14.01,2013-09-24 15:52:00,
2013-09-24 10:53:00,75.9,42.3,29.09,SSE,152,4.9,4.9,30,0.00,,SCT050,0.00,VWS V14.01,2013-09-24 15:53:00,
2013-09-24 10:54:00,76.1,42.5,29.09,South,169,4.0,5.8,30,0.00,,SCT050,0.00,VWS V14.01,2013-09-24 15:54:00,
2013-09-24 10:55:00,76.1,42.5,29.09,ESE,119,3.1,5.4,30,0.00,,SCT050,0.00,VWS V14.01,2013-09-24 15:55:00,
2013-09-24 10:57:00,76.1,42.5,29.09,ESE,111,3.1,7.6,30,0.00,,SCT050,0.00,VWS V14.01,2013-09-24 15:57:00,
2013-09-24 10:58:00,76.1,42.5,29.09,ESE,111,0.0,3.1,30,0.00,,SCT050,0.00,VWS V14.01,2013-09-24 15:58:00,
2013-09-24 11:00:00,76.1,42.5,29.09,ESE,110,2.7,4.9,30,0.00,,SCT050,0.00,VWS V14.01,2013-09-24 16:00:00,
2013-09-24 11:01:00,76.1,42.5,29.09,East,98,5.4,5.4,30,0.00,,CLR,0.00,VWS V14.01,2013-09-24 16:01:00,
2013-09-24 11:02:00,76.1,42.5,29.09,ENE,78,2.2,2.2,30,0.00,,CLR,0.00,VWS V14.01,2013-09-24 16:02:00,
2013-09-24 11:03:00,76.1,42.5,29.09,SSE,167,3.6,3.6,30,0.00,,CLR,0.00,VWS V14.01,2013-09-24 16:03:00,
2013-09-24 11:06:00,75.9,42.3,29.09,East,83,0.0,0.0,30,0.00,,CLR,0.00,VWS V14.01,2013-09-24 16:06:00,
2013-09-24 11:09:00,76.3,42.6,29.09,SE,127,4.0,4.9,30,0.00,,CLR,0.00,VWS V14.01,2013-09-24 16:09:00,
2013-09-24 11:10:00,76.5,42.8,29.09,ESE,107,3.6,3.6,30,0.00,,CLR,0.00,VWS V14.01,2013-09-24 16:10:00,
2013-09-24 11:11:00,76.8,43.1,29.09,East,94,4.9,4.9,30,0.00,,CLR,0.00,VWS V14.01,2013-09-24 16:11:00,
2013-09-24 11:12:00,76.8,43.1,29.09,East,100,3.1,4.9,30,0.00,,CLR,0.00,VWS V14.01,2013-09-24 16:12:00,
2013-09-24 11:14:00,77.2,43.4,29.09,South,178,4.9,4.9,30,0.00,,CLR,0.00,VWS V14.01,2013-09-24 16:14:00,
2013-09-24 11:15:00,77.2,43.4,29.09,ESE,106,4.9,4.9,30,0.00,,CLR,0.00,VWS V14.01,2013-09-24 16:15:00,
2013-09-24 11:17:00,77.4,43.5,29.09,ESE,103,2.7,4.9,30,0.00,,CLR,0.00,VWS V14.01,2013-09-24 16:17:00,
2013-09-24 11:18:00,77.5,43.7,29.09,SSE,158,4.9,4.9,30,0.00,,CLR,0.00,VWS V14.01,2013-09-24 16:18:00,
2013-09-24 11:19:00,77.7,43.8,29.09,SSE,157,5.4,7.6,30,0.00,,CLR,0.00,VWS V14.01,2013-09-24 16:19:00,
2013-09-24 11:22:00,78.3,44.3,29.09,SSE,150,3.6,4.9,30,0.00,,CLR,0.00,VWS V14.01,2013-09-24 16:22:00,
2013-09-24 11:23:00,78.4,44.5,29.06,East,101,2.2,3.6,30,0.00,,CLR,0.00,VWS V14.01,2013-09-24 16:23:00,
2013-09-24 11:24:00,78.6,44.6,29.06,ENE,57,3.6,3.6,30,0.00,,CLR,0.00,VWS V14.01,2013-09-24 16:24:00,
2013-09-24 11:27:00,79.0,44.9,29.06,SE,129,4.9,4.9,30,0.00,,CLR,0.00,VWS V14.01,2013-09-24 16:27:00,
2013-09-24 11:29:00,79.2,45.1,29.06,SE,146,3.6,4.0,30,0.00,,CLR,0.00,VWS V14.01,2013-09-24 16:29:00,
2013-09-24 11:30:00,79.2,45.1,29.06,ENE,76,4.0,5.4,30,0.00,,CLR,0.00,VWS V14.01,2013-09-24 16:30:00,
2013-09-24 11:32:00,79.2,45.1,29.06,ESE,108,3.6,4.9,30,0.00,,CLR,0.00,VWS V14.01,2013-09-24 16:32:00,
2013-09-24 11:33:00,79.2,45.1,29.06,ESE,108,2.2,4.9,30,0.00,,CLR,0.00,VWS V14.01,2013-09-24 16:33:00,
2013-09-24 11:34:00,79.5,45.4,29.06,ENE,72,0.0,4.9,30,0.00,,CLR,0.00,VWS V14.01,2013-09-24 16:34:00,
2013-09-24 11:35:00,79.5,45.4,29.06,SE,146,4.9,4.9,30,0.00,,CLR,0.00,VWS V14.01,2013-09-24 16:35:00,
2013-09-24 11:38:00,79.9,45.7,29.06,East,88,2.7,4.9,30,0.00,,CLR,0.00,VWS V14.01,2013-09-24 16:38:00,
2013-09-24 11:39:00,79.9,45.7,29.06,SSE,154,3.1,6.3,30,0.00,,CLR,0.00,VWS V14.01,2013-09-24 16:39:00,
2013-09-24 11:43:00,80.4,46.2,29.06,SE,133,4.9,5.8,30,0.00,,CLR,0.00,VWS V14.01,2013-09-24 16:43:00,
2013-09-24 11:44:00,80.4,46.2,29.06,SE,126,4.0,4.9,30,0.00,,CLR,0.00,VWS V14.01,2013-09-24 16:44:00,
2013-09-24 11:45:00,80.4,46.2,29.06,East,95,6.3,6.3,30,0.00,,CLR,0.00,VWS V14.01,2013-09-24 16:45:00,
2013-09-24 11:48:00,80.6,44.5,29.06,SE,137,3.6,5.4,28,0.00,,CLR,0.00,VWS V14.01,2013-09-24 16:48:00,
2013-09-24 11:49:00,80.8,44.7,29.06,SSW,203,3.6,5.4,28,0.00,,CLR,0.00,VWS V14.01,2013-09-24 16:49:00,
2013-09-24 11:50:00,80.8,44.7,29.06,SE,138,3.6,7.6,28,0.00,,CLR,0.00,VWS V14.01,2013-09-24 16:50:00,
2013-09-24 11:52:00,81.1,45.0,29.06,SE,128,3.6,3.6,28,0.00,,CLR,0.00,VWS V14.01,2013-09-24 16:52:00,
2013-09-24 11:54:00,81.3,45.1,29.06,East,84,5.4,5.4,28,0.00,,CLR,0.00,VWS V14.01,2013-09-24 16:54:00,
2013-09-24 11:55:00,81.3,45.1,29.06,ESE,119,0.0,3.6,28,0.00,,CLR,0.00,VWS V14.01,2013-09-24 16:55:00,
2013-09-24 11:57:00,81.3,45.1,29.06,ENE,73,5.4,5.4,28,0.00,,CLR,0.00,VWS V14.01,2013-09-24 16:57:00,
2013-09-24 11:58:00,81.3,45.1,29.06,SE,144,5.8,5.8,28,0.00,,CLR,0.00,VWS V14.01,2013-09-24 16:58:00,
2013-09-24 12:00:00,81.5,45.3,29.06,SE,131,5.8,5.8,28,0.00,,CLR,0.00,VWS V14.01,2013-09-24 17:00:00,
2013-09-24 12:01:00,81.5,45.3,29.06,SE,125,3.1,5.8,28,0.00,,CLR,0.00,VWS V14.01,2013-09-24 17:01:00,
2013-09-24 12:03:00,81.5,45.3,29.06,SSE,168,3.1,3.6,28,0.00,,CLR,0.00,VWS V14.01,2013-09-24 17:03:00,
2013-09-24 12:04:00,81.7,45.4,29.06,South,173,6.7,8.7,28,0.00,,CLR,0.00,VWS V14.01,2013-09-24 17:04:00,
2013-09-24 12:05:00,81.7,45.4,29.06,SSE,156,12.8,12.8,28,0.00,,CLR,0.00,VWS V14.01,2013-09-24 17:05:00,
2013-09-24 12:06:00,81.7,45.4,29.06,SE,136,8.7,8.7,28,0.00,,CLR,0.00,VWS V14.01,2013-09-24 17:06:00,
2013-09-24 12:08:00,81.9,45.6,29.03,SE,125,6.3,8.7,28,0.00,,CLR,0.00,VWS V14.01,2013-09-24 17:08:00,
2013-09-24 12:09:00,81.9,45.6,29.03,ESE,118,8.7,8.7,28,0.00,,CLR,0.00,VWS V14.01,2013-09-24 17:09:00,
2013-09-24 12:10:00,81.7,45.4,29.03,SE,140,8.3,8.3,28,0.00,,CLR,0.00,VWS V14.01,2013-09-24 17:10:00,
2013-09-24 12:11:00,81.9,45.6,29.03,SE,124,2.7,8.3,28,0.00,,CLR,0.00,VWS V14.01,2013-09-24 17:11:00,
2013-09-24 12:13:00,81.7,45.4,29.03,SSE,158,2.2,3.1,28,0.00,,CLR,0.00,VWS V14.01,2013-09-24 17:13:00,
2013-09-24 12:14:00,81.7,45.4,29.03,SSE,152,5.4,7.6,28,0.00,,CLR,0.00,VWS V14.01,2013-09-24 17:14:00,
2013-09-24 12:15:00,81.5,45.3,29.03,SSE,161,5.4,6.7,28,0.00,,CLR,0.00,VWS V14.01,2013-09-24 17:15:00,
2013-09-24 12:16:00,81.5,45.3,29.03,SE,127,4.9,6.7,28,0.00,,CLR,0.00,VWS V14.01,2013-09-24 17:16:00,
2013-09-24 12:19:00,81.3,45.1,29.03,SE,142,2.7,3.6,28,0.00,,CLR,0.00,VWS V14.01,2013-09-24 17:19:00,
2013-09-24 12:21:00,81.1,45.0,29.03,SSE,162,8.7,8.7,28,0.00,,CLR,0.00,VWS V14.01,2013-09-24 17:21:00,
2013-09-24 12:22:00,80.8,44.7,29.03,ESE,104,4.0,5.4,28,0.00,,CLR,0.00,VWS V14.01,2013-09-24 17:22:00,
2013-09-24 12:24:00,80.2,46.0,29.06,SSE,160,3.6,3.6,30,0.00,,CLR,0.00,VWS V14.01,2013-09-24 17:24:00,
2013-09-24 12:25:00,80.4,46.2,29.06,ENE,68,4.9,4.9,30,0.00,,CLR,0.00,VWS V14.01,2013-09-24 17:25:00,
2013-09-24 12:26:00,80.4,46.2,29.06,SE,144,4.9,5.4,30,0.00,,CLR,0.00,VWS V14.01,2013-09-24 17:26:00,
2013-09-24 12:27:00,80.4,46.2,29.06,SSE,153,5.4,5.4,30,0.00,,CLR,0.00,VWS V14.01,2013-09-24 17:27:00,
2013-09-24 12:29:00,80.6,44.5,29.06,East,101,4.0,5.4,28,0.00,,CLR,0.00,VWS V14.01,2013-09-24 17:29:00,
2013-09-24 12:30:00,80.6,44.5,29.06,East,101,2.2,5.4,28,0.00,,CLR,0.00,VWS V14.01,2013-09-24 17:30:00,
2013-09-24 12:32:00,81.5,45.3,29.06,ENE,71,4.0,4.0,28,0.00,,CLR,0.00,VWS V14.01,2013-09-24 17:32:00,
2013-09-24 12:33:00,82.0,45.8,29.06,East,99,3.1,3.1,28,0.00,,CLR,0.00,VWS V14.01,2013-09-24 17:33:00,
2013-09-24 12:35:00,82.8,46.4,29.06,NE,44,7.2,7.2,28,0.00,,CLR,0.00,VWS V14.01,2013-09-24 17:35:00,
2013-09-24 12:37:00,82.9,46.5,29.06,East,84,3.1,3.1,28,0.00,,CLR,0.00,VWS V14.01,2013-09-24 17:37:00,
2013-09-24 12:38:00,83.1,46.7,29.03,East,95,2.7,4.0,28,0.00,,CLR,0.00,VWS V14.01,2013-09-24 17:38:00,
2013-09-24 12:39:00,83.3,46.8,29.03,East,96,3.6,3.6,28,0.00,,CLR,0.00,VWS V14.01,2013-09-24 17:39:00,
2013-09-24 12:41:00,83.3,46.8,29.03,SSE,157,10.5,10.5,28,0.00,,CLR,0.00,VWS V14.01,2013-09-24 17:41:00,
2013-09-24 12:42:00,83.3,46.8,29.03,SE,137,3.1,10.5,28,0.00,,CLR,0.00,VWS V14.01,2013-09-24 17:42:00,
2013-09-24 12:43:00,83.3,46.8,29.03,SSW,203,8.1,8.3,28,0.00,,CLR,0.00,VWS V14.01,2013-09-24 17:43:00,
2013-09-24 12:44:00,83.3,46.8,29.03,SSE,157,7.2,8.1,28,0.00,,CLR,0.00,VWS V14.01,2013-09-24 17:44:00,
2013-09-24 12:45:00,83.1,46.7,29.03,South,177,10.1,10.1,28,0.00,,CLR,0.00,VWS V14.01,2013-09-24 17:45:00,
2013-09-24 12:46:00,82.9,46.5,29.03,SSE,162,6.3,6.3,28,0.00,,CLR,0.00,VWS V14.01,2013-09-24 17:46:00,
2013-09-24 12:48:00,82.9,46.5,29.03,South,178,8.3,8.3,28,0.00,,CLR,0.00,VWS V14.01,2013-09-24 17:48:00,
2013-09-24 12:49:00,82.8,46.4,29.03,SSE,147,5.4,8.3,28,0.00,,CLR,0.00,VWS V14.01,2013-09-24 17:49:00,
2013-09-24 12:50:00,82.8,46.4,29.03,SE,133,4.9,4.9,28,0.00,,CLR,0.00,VWS V14.01,2013-09-24 17:50:00,
2013-09-24 12:52:00,82.4,46.1,29.03,East,84,2.7,3.1,28,0.00,,CLR,0.00,VWS V14.01,2013-09-24 17:52:00,
2013-09-24 12:54:00,82.4,46.1,29.03,East,90,3.6,3.6,28,0.00,,CLR,0.00,VWS V14.01,2013-09-24 17:54:00,
2013-09-24 12:55:00,82.4,46.1,29.03,ESE,116,0.0,6.3,28,0.00,,CLR,0.00,VWS V14.01,2013-09-24 17:55:00,
2013-09-24 12:59:00,82.2,45.9,29.03,SE,139,2.7,2.7,28,0.00,,CLR,0.00,VWS V14.01,2013-09-24 17:59:00,
2013-09-24 13:00:00,82.2,45.9,29.03,ESE,106,6.3,7.2,28,0.00,,CLR,0.00,VWS V14.01,2013-09-24 18:00:00,
2013-09-24 13:01:00,82.2,45.9,29.03,ESE,110,3.1,6.3,28,0.00,,CLR,0.00,VWS V14.01,2013-09-24 18:01:00,
2013-09-24 13:05:00,81.9,45.6,29.03,South,173,6.3,10.1,28,0.00,,CLR,0.00,VWS V14.01,2013-09-24 18:05:00,
2013-09-24 13:06:00,81.7,45.4,29.03,SSE,168,7.6,8.7,28,0.00,,CLR,0.00,VWS V14.01,2013-09-24 18:06:00,
2013-09-24 13:07:00,81.5,45.3,29.03,SSE,165,4.9,6.3,28,0.00,,CLR,0.00,VWS V14.01,2013-09-24 18:07:00,
2013-09-24 13:10:00,81.3,45.1,29.03,ESE,104,3.1,3.1,28,0.00,,CLR,0.00,VWS V14.01,2013-09-24 18:10:00,
2013-09-24 13:11:00,81.3,45.1,29.03,ENE,72,3.6,5.8,28,0.00,,CLR,0.00,VWS V14.01,2013-09-24 18:11:00,
2013-09-24 13:12:00,81.5,45.3,29.03,SW,217,3.1,4.0,28,0.00,,CLR,0.00,VWS V14.01,2013-09-24 18:12:00,
2013-09-24 13:15:00,82.2,45.9,29.03,SE,145,8.1,8.1,28,0.00,,CLR,0.00,VWS V14.01,2013-09-24 18:15:00,
2013-09-24 13:16:00,82.4,46.1,29.03,SE,129,4.9,11.0,28,0.00,,CLR,0.00,VWS V14.01,2013-09-24 18:16:00,
2013-09-24 13:18:00,82.6,46.2,29.03,SE,133,8.3,8.3,28,0.00,,CLR,0.00,VWS V14.01,2013-09-24 18:18:00,
2013-09-24 13:20:00,82.6,46.2,29.03,East,97,5.4,6.3,28,0.00,,CLR,0.00,VWS V14.01,2013-09-24 18:20:00,
2013-09-24 13:22:00,82.6,46.2,29.03,SE,142,5.4,5.4,28,0.00,,CLR,0.00,VWS V14.01,2013-09-24 18:22:00,
2013-09-24 13:23:00,82.4,46.1,29.03,South,187,5.8,5.8,28,0.00,,CLR,0.00,VWS V14.01,2013-09-24 18:23:00,
2013-09-24 13:26:00,82.0,45.8,29.03,South,179,9.6,9.6,28,0.00,,CLR,0.00,VWS V14.01,2013-09-24 18:26:00,
2013-09-24 13:28:00,82.0,45.8,29.03,ESE,115,3.6,4.9,28,0.00,,CLR,0.00,VWS V14.01,2013-09-24 18:28:00,
2013-09-24 13:31:00,81.9,45.6,29.03,East,80,0.0,6.3,28,0.00,,CLR,0.00,VWS V14.01,2013-09-24 18:31:00,
2013-09-24 13:33:00,82.0,45.8,29.03,East,92,6.3,6.3,28,0.00,,CLR,0.00,VWS V14.01,2013-09-24 18:33:00,
2013-09-24 13:34:00,82.0,45.8,29.03,East,92,6.3,6.3,28,0.00,,CLR,0.00,VWS V14.01,2013-09-24 18:34:00,
2013-09-24 13:35:00,82.2,45.9,29.03,East,99,2.2,5.8,28,0.00,,CLR,0.00,VWS V14.01,2013-09-24 18:35:00,
2013-09-24 13:37:00,82.6,46.2,29.03,South,191,7.2,7.2,28,0.00,,CLR,0.00,VWS V14.01,2013-09-24 18:37:00,
2013-09-24 13:39:00,82.8,46.4,29.03,ESE,107,2.2,4.9,28,0.00,,CLR,0.00,VWS V14.01,2013-09-24 18:39:00,
2013-09-24 13:41:00,83.1,46.7,29.03,SSE,155,3.1,4.0,28,0.00,,CLR,0.00,VWS V14.01,2013-09-24 18:41:00,
2013-09-24 13:42:00,83.5,47.0,29.03,SSE,151,8.1,8.1,28,0.00,,CLR,0.00,VWS V14.01,2013-09-24 18:42:00,
2013-09-24 13:44:00,83.5,47.0,29.03,SSE,164,4.9,4.9,28,0.00,,CLR,0.00,VWS V14.01,2013-09-24 18:44:00,
2013-09-24 13:45:00,83.8,47.3,29.03,East,99,4.9,4.9,28,0.00,,CLR,0.00,VWS V14.01,2013-09-24 18:45:00,
2013-09-24 13:46:00,83.8,47.3,29.03,SE,125,3.1,3.1,28,0.00,,CLR,0.00,VWS V14.01,2013-09-24 18:46:00,
2013-09-24 13:48:00,83.8,47.3,29.03,East,95,4.9,6.3,28,0.00,,CLR,0.00,VWS V14.01,2013-09-24 18:48:00,
2013-09-24 13:49:00,83.1,46.7,29.03,East,93,0.0,6.3,28,0.00,,CLR,0.00,VWS V14.01,2013-09-24 18:49:00,
2013-09-24 13:51:00,82.6,46.2,29.03,SE,128,3.1,4.0,28,0.00,,CLR,0.00,VWS V14.01,2013-09-24 18:51:00,
2013-09-24 13:52:00,82.4,46.1,29.03,ESE,110,7.6,8.1,28,0.00,,CLR,0.00,VWS V14.01,2013-09-24 18:52:00,
2013-09-24 13:53:00,82.4,46.1,29.00,ESE,102,5.4,5.4,28,0.00,,CLR,0.00,VWS V14.01,2013-09-24 18:53:00,
2013-09-24 13:55:00,82.2,45.9,29.00,South,174,5.4,5.4,28,0.00,,CLR,0.00,VWS V14.01,2013-09-24 18:55:00,
2013-09-24 13:56:00,82.2,45.9,29.00,ESE,118,4.0,5.8,28,0.00,,CLR,0.00,VWS V14.01,2013-09-24 18:56:00,
2013-09-24 13:57:00,81.7,45.4,29.00,ESE,113,4.0,5.8,28,0.00,,CLR,0.00,VWS V14.01,2013-09-24 18:57:00,
2013-09-24 13:59:00,81.0,44.8,29.00,ENE,76,5.4,5.4,28,0.00,,CLR,0.00,VWS V14.01,2013-09-24 18:59:00,
2013-09-24 14:00:00,80.8,44.7,29.00,ESE,109,4.0,5.4,28,0.00,,CLR,0.00,VWS V14.01,2013-09-24 19:00:00,
2013-09-24 14:01:00,80.4,46.2,29.00,SSW,196,4.9,4.9,30,0.00,,FEW039,0.00,VWS V14.01,2013-09-24 19:01:00,
2013-09-24 14:02:00,80.6,44.5,29.00,SSE,153,4.0,4.0,28,0.00,,FEW039,0.00,VWS V14.01,2013-09-24 19:02:00,
2013-09-24 14:04:00,81.1,45.0,29.00,ENE,66,2.7,2.7,28,0.00,,FEW039,0.00,VWS V14.01,2013-09-24 19:04:00,
2013-09-24 14:05:00,81.7,45.4,29.00,ENE,73,3.1,4.0,28,0.00,,FEW039,0.00,VWS V14.01,2013-09-24 19:05:00,
2013-09-24 14:07:00,82.2,45.9,29.00,East,82,2.7,3.1,28,0.00,,FEW039,0.00,VWS V14.01,2013-09-24 19:07:00,
2013-09-24 14:08:00,82.8,46.4,29.00,East,99,3.1,3.1,28,0.00,,FEW039,0.00,VWS V14.01,2013-09-24 19:08:00,
2013-09-24 14:09:00,83.3,46.8,29.00,East,83,0.0,3.6,28,0.00,,FEW039,0.00,VWS V14.01,2013-09-24 19:09:00,
2013-09-24 14:11:00,83.8,47.3,29.00,East,81,2.7,5.4,28,0.00,,FEW039,0.00,VWS V14.01,2013-09-24 19:11:00,
2013-09-24 14:12:00,84.2,45.6,29.00,ESE,111,5.4,5.4,26,0.00,,FEW039,0.00,VWS V14.01,2013-09-24 19:12:00,
2013-09-24 14:13:00,84.4,45.8,29.00,East,84,3.1,5.4,26,0.00,,FEW039,0.00,VWS V14.01,2013-09-24 19:13:00,
2013-09-24 14:14:00,84.6,45.9,29.00,East,86,3.1,3.1,26,0.00,,FEW039,0.00,VWS V14.01,2013-09-24 19:14:00,
2013-09-24 14:15:00,84.6,45.9,29.00,East,97,2.7,4.0,26,0.00,,FEW039,0.00,VWS V14.01,2013-09-24 19:15:00,
2013-09-24 14:17:00,84.7,46.1,29.00,East,99,0.0,3.6,26,0.00,,FEW039,0.00,VWS V14.01,2013-09-24 19:17:00,
2013-09-24 14:18:00,84.7,46.1,29.00,ESE,120,5.4,5.8,26,0.00,,FEW039,0.00,VWS V14.01,2013-09-24 19:18:00,
2013-09-24 14:19:00,84.7,46.1,29.00,ESE,111,3.1,3.1,26,0.00,,FEW039,0.00,VWS V14.01,2013-09-24 19:19:00,
2013-09-24 14:20:00,84.6,45.9,29.00,SSE,151,5.8,6.3,26,0.00,,FEW039,0.00,VWS V14.01,2013-09-24 19:20:00,
2013-09-24 14:23:00,84.6,45.9,29.00,East,83,3.1,5.4,26,0.00,,FEW039,0.00,VWS V14.01,2013-09-24 19:23:00,
2013-09-24 14:24:00,84.6,45.9,29.00,ENE,65,4.9,4.9,26,0.00,,FEW039,0.00,VWS V14.01,2013-09-24 19:24:00,
2013-09-24 14:25:00,84.6,45.9,29.00,ENE,65,3.6,4.9,26,0.00,,FEW039,0.00,VWS V14.01,2013-09-24 19:25:00,
2013-09-24 14:27:00,84.2,45.6,29.00,South,173,3.6,3.6,26,0.00,,FEW039,0.00,VWS V14.01,2013-09-24 19:27:00,
2013-09-24 14:28:00,84.2,45.6,29.00,East,101,3.1,5.8,26,0.00,,FEW039,0.00,VWS V14.01,2013-09-24 19:28:00,
2013-09-24 14:30:00,84.2,45.6,29.00,SE,130,4.0,7.2,26,0.00,,FEW039,0.00,VWS V14.01,2013-09-24 19:30:00,
2013-09-24 14:31:00,84.2,45.6,29.00,East,84,2.7,3.1,26,0.00,,FEW039,0.00,VWS V14.01,2013-09-24 19:31:00,
2013-09-24 14:33:00,84.7,46.1,29.00,ESE,110,5.4,5.4,26,0.00,,FEW039,0.00,VWS V14.01,2013-09-24 19:33:00,
2013-09-24 14:34:00,84.7,46.1,29.00,East,86,4.0,8.1,26,0.00,,FEW039,0.00,VWS V14.01,2013-09-24 19:34:00,
2013-09-24 14:35:00,84.7,46.1,29.00,SSE,150,3.6,3.6,26,0.00,,FEW039,0.00,VWS V14.01,2013-09-24 19:35:00,
2013-09-24 14:36:00,84.7,46.1,29.00,East,92,2.2,4.0,26,0.00,,FEW039,0.00,VWS V14.01,2013-09-24 19:36:00,
2013-09-24 14:38:00,83.8,47.3,28.97,East,100,3.6,4.0,28,0.00,,FEW039,0.00,VWS V14.01,2013-09-24 19:38:00,
2013-09-24 14:39:00,83.7,47.1,28.97,ESE,112,7.6,7.6,28,0.00,,FEW039,0.00,VWS V14.01,2013-09-24 19:39:00,
2013-09-24 14:40:00,83.3,46.8,28.97,SE,133,3.6,3.6,28,0.00,,FEW039,0.00,VWS V14.01,2013-09-24 19:40:00,
2013-09-24 14:41:00,83.1,46.7,28.97,ESE,117,2.7,3.6,28,0.00,,FEW039,0.00,VWS V14.01,2013-09-24 19:41:00,
2013-09-24 14:42:00,82.8,46.4,28.97,ESE,115,0.0,3.6,28,0.00,,FEW039,0.00,VWS V14.01,2013-09-24 19:42:00,
2013-09-24 14:43:00,82.6,46.2,28.97,ENE,76,2.7,3.6,28,0.00,,FEW039,0.00,VWS V14.01,2013-09-24 19:43:00,
2013-09-24 14:44:00,82.2,45.9,28.97,ESE,106,2.7,3.6,28,0.00,,FEW039,0.00,VWS V14.01,2013-09-24 19:44:00,
2013-09-24 14:45:00,81.9,45.6,28.97,East,91,4.0,4.0,28,0.00,,FEW039,0.00,VWS V14.01,2013-09-24 19:45:00,
2013-09-24 14:46:00,81.7,45.4,28.97,East,86,0.0,4.0,28,0.00,,FEW039,0.00,VWS V14.01,2013-09-24 19:46:00,
2013-09-24 14:47:00,81.9,45.6,28.97,East,87,4.9,5.8,28,0.00,,FEW039,0.00,VWS V14.01,2013-09-24 19:47:00,
2013-09-24 14:48:00,82.0,45.8,28.97,ENE,69,2.7,2.7,28,0.00,,FEW039,0.00,VWS V14.01,2013-09-24 19:48:00,
2013-09-24 14:50:00,82.4,46.1,28.97,ENE,76,5.8,5.8,28,0.00,,FEW039,0.00,VWS V14.01,2013-09-24 19:50:00,
2013-09-24 14:51:00,82.6,46.2,28.97,SSE,157,4.0,4.0,28,0.00,,FEW039,0.00,VWS V14.01,2013-09-24 19:51:00,
2013-09-24 14:52:00,82.8,46.4,28.97,SSE,158,6.3,6.3,28,0.00,,FEW039,0.00,VWS V14.01,2013-09-24 19:52:00,
2013-09-24 14:53:00,82.8,46.4,28.97,ESE,106,4.0,6.3,28,0.00,,FEW039,0.00,VWS V14.01,2013-09-24 19:53:00,
2013-09-24 14:54:00,82.8,46.4,28.97,ENE,61,0.0,0.0,28,0.00,,FEW039,0.00,VWS V14.01,2013-09-24 19:54:00,
2013-09-24 14:55:00,82.9,46.5,28.97,ENE,61,0.0,0.0,28,0.00,,FEW039,0.00,VWS V14.01,2013-09-24 19:55:00,
2013-09-24 14:57:00,82.4,46.1,28.97,SE,131,0.0,4.9,28,0.00,,FEW039,0.00,VWS V14.01,2013-09-24 19:57:00,
2013-09-24 14:58:00,82.2,45.9,28.97,SSE,150,5.8,5.8,28,0.00,,FEW039,0.00,VWS V14.01,2013-09-24 19:58:00,
2013-09-24 14:59:00,81.7,45.4,28.97,SSE,164,5.4,8.3,28,0.00,,FEW039,0.00,VWS V14.01,2013-09-24 19:59:00,
2013-09-24 15:00:00,81.7,45.4,28.97,South,183,4.9,4.9,28,0.00,,FEW039,0.00,VWS V14.01,2013-09-24 20:00:00,
2013-09-24 15:03:00,81.7,45.4,28.97,SSE,162,8.1,8.1,28,0.00,,BKN049,0.00,VWS V14.01,2013-09-24 20:03:00,
2013-09-24 15:04:00,82.0,45.8,28.97,SE,141,8.3,8.3,28,0.00,,BKN049,0.00,VWS V14.01,2013-09-24 20:04:00,
2013-09-24 15:06:00,82.4,46.1,28.97,SSE,155,6.7,7.6,28,0.00,,BKN049,0.00,VWS V14.01,2013-09-24 20:06:00,
2013-09-24 15:07:00,82.8,46.4,28.97,SSW,206,8.7,8.7,28,0.00,,BKN049,0.00,VWS V14.01,2013-09-24 20:07:00,
2013-09-24 15:08:00,82.8,46.4,28.97,ESE,122,5.8,8.7,28,0.00,,BKN049,0.00,VWS V14.01,2013-09-24 20:08:00,
2013-09-24 15:09:00,83.1,46.7,28.97,ESE,119,3.1,8.3,28,0.00,,BKN049,0.00,VWS V14.01,2013-09-24 20:09:00,
2013-09-24 15:10:00,83.3,46.8,28.97,SSE,164,8.1,8.1,28,0.00,,BKN049,0.00,VWS V14.01,2013-09-24 20:10:00,
2013-09-24 15:11:00,83.1,46.7,28.97,SSE,164,5.8,8.1,28,0.00,,BKN049,0.00,VWS V14.01,2013-09-24 20:11:00,
2013-09-24 15:13:00,83.5,47.0,28.97,East,86,2.2,2.2,28,0.00,,BKN049,0.00,VWS V14.01,2013-09-24 20:13:00,
2013-09-24 15:14:00,83.5,47.0,28.97,ENE,61,2.7,4.0,28,0.00,,BKN049,0.00,VWS V14.01,2013-09-24 20:14:00,
2013-09-24 15:15:00,83.5,47.0,28.97,ENE,61,0.0,4.0,28,0.00,,BKN049,0.00,VWS V14.01,2013-09-24 20:15:00,
2013-09-24 15:16:00,83.7,47.1,28.97,East,93,2.7,3.6,28,0.00,,BKN049,0.00,VWS V14.01,2013-09-24 20:16:00,
2013-09-24 15:19:00,83.5,47.0,28.97,SSE,148,3.1,4.9,28,0.00,,BKN049,0.00,VWS V14.01,2013-09-24 20:19:00,
2013-09-24 15:20:00,83.3,46.8,28.97,East,91,2.2,3.1,28,0.00,,BKN049,0.00,VWS V14.01,2013-09-24 20:20:00,
2013-09-24 15:21:00,83.1,46.7,28.97,SE,126,3.6,6.3,28,0.00,,BKN049,0.00,VWS V14.01,2013-09-24 20:21:00,
2013-09-24 15:22:00,82.9,46.5,28.97,ESE,112,4.9,4.9,28,0.00,,BKN049,0.00,VWS V14.01,2013-09-24 20:22:00,
2013-09-24 15:24:00,82.4,46.1,28.97,SSE,157,2.2,5.4,28,0.00,,BKN049,0.00,VWS V14.01,2013-09-24 20:24:00,
2013-09-24 15:25:00,82.2,45.9,28.97,ESE,118,7.2,7.2,28,0.00,,BKN049,0.00,VWS V14.01,2013-09-24 20:25:00,
2013-09-24 15:26:00,82.2,45.9,28.97,SSE,147,4.0,7.2,28,0.00,,BKN049,0.00,VWS V14.01,2013-09-24 20:26:00,
2013-09-24 15:27:00,82.4,46.1,28.97,SE,144,0.0,2.2,28,0.00,,BKN049,0.00,VWS V14.01,2013-09-24 20:27:00,
2013-09-24 15:30:00,82.9,46.5,28.97,East,86,3.1,5.4,28,0.00,,BKN049,0.00,VWS V14.01,2013-09-24 20:30:00,
2013-09-24 15:31:00,82.8,46.4,28.97,SE,126,2.7,4.0,28,0.00,,BKN049,0.00,VWS V14.01,2013-09-24 20:31:00,
2013-09-24 15:32:00,82.6,46.2,28.97,SE,135,3.6,6.3,28,0.00,,BKN049,0.00,VWS V14.01,2013-09-24 20:32:00,
2013-09-24 15:36:00,82.2,45.9,28.97,SE,142,3.1,3.1,28,0.00,,BKN049,0.00,VWS V14.01,2013-09-24 20:36:00,
2013-09-24 15:37:00,82.2,45.9,28.97,ESE,115,2.7,3.1,28,0.00,,BKN049,0.00,VWS V14.01,2013-09-24 20:37:00,
2013-09-24 15:42:00,83.3,46.8,28.97,SSE,164,5.8,5.8,28,0.00,,BKN049,0.00,VWS V14.01,2013-09-24 20:42:00,
2013-09-24 15:43:00,83.7,47.1,28.97,SSE,155,4.9,6.3,28,0.00,,BKN049,0.00,VWS V14.01,2013-09-24 20:43:00,
2013-09-24 15:47:00,84.9,46.2,28.97,SSE,151,3.6,8.1,26,0.00,,BKN049,0.00,VWS V14.01,2013-09-24 20:47:00,
2013-09-24 15:48:00,84.9,46.2,28.97,SE,127,4.0,4.0,26,0.00,,BKN049,0.00,VWS V14.01,2013-09-24 20:48:00,
2013-09-24 15:49:00,85.1,46.4,28.97,SSE,166,3.6,3.6,26,0.00,,BKN049,0.00,VWS V14.01,2013-09-24 20:49:00,
2013-09-24 15:53:00,85.3,46.5,28.97,ESE,105,5.8,5.8,26,0.00,,BKN049,0.00,VWS V14.01,2013-09-24 20:53:00,
2013-09-24 15:54:00,85.3,46.5,28.97,SE,141,5.8,5.8,26,0.00,,BKN049,0.00,VWS V14.01,2013-09-24 20:54:00,
2013-09-24 15:55:00,85.1,46.4,28.97,SE,132,4.0,5.8,26,0.00,,BKN049,0.00,VWS V14.01,2013-09-24 20:55:00,
2013-09-24 15:58:00,83.3,46.8,28.97,ESE,113,7.2,7.2,28,0.00,,BKN049,0.00,VWS V14.01,2013-09-24 20:58:00,
2013-09-24 15:59:00,82.8,46.4,28.97,SE,131,6.3,6.3,28,0.00,,BKN049,0.00,VWS V14.01,2013-09-24 20:59:00,
2013-09-24 16:00:00,82.6,46.2,28.97,SE,130,4.5,6.3,28,0.00,,BKN049,0.00,VWS V14.01,2013-09-24 21:00:00,
2013-09-24 16:03:00,81.5,45.3,28.97,SSE,155,5.8,5.8,28,0.00,,BKN050,0.00,VWS V14.01,2013-09-24 21:03:00,
2013-09-24 16:04:00,81.5,45.3,28.97,SE,132,4.9,5.8,28,0.00,,BKN050,0.00,VWS V14.01,2013-09-24 21:04:00,
2013-09-24 16:05:00,81.9,45.6,28.97,East,100,3.6,4.0,28,0.00,,BKN050,0.00,VWS V14.01,2013-09-24 21:05:00,
2013-09-24 16:06:00,82.0,45.8,28.97,SE,146,6.7,6.7,28,0.00,,BKN050,0.00,VWS V14.01,2013-09-24 21:06:00,
2013-09-24 16:09:00,83.1,46.7,28.97,SE,140,5.4,5.4,28,0.00,,BKN050,0.00,VWS V14.01,2013-09-24 21:09:00,
2013-09-24 16:10:00,83.5,47.0,28.97,SE,135,2.7,6.3,28,0.00,,BKN050,0.00,VWS V14.01,2013-09-24 21:10:00,
2013-09-24 16:11:00,83.3,46.8,28.97,ESE,107,0.0,4.0,28,0.00,,BKN050,0.00,VWS V14.01,2013-09-24 21:11:00,
2013-09-24 16:14:00,82.6,46.2,28.97,ESE,117,2.7,2.7,28,0.00,,BKN050,0.00,VWS V14.01,2013-09-24 21:14:00,
2013-09-24 16:15:00,82.2,45.9,28.97,ESE,107,3.1,4.0,28,0.00,,BKN050,0.00,VWS V14.01,2013-09-24 21:15:00,
2013-09-24 16:17:00,81.5,45.3,28.97,SE,135,2.2,4.0,28,0.00,,BKN050,0.00,VWS V14.01,2013-09-24 21:17:00,
2013-09-24 16:18:00,81.3,45.1,28.97,ESE,111,4.0,5.8,28,0.00,,BKN050,0.00,VWS V14.01,2013-09-24 21:18:00,
2013-09-24 16:19:00,81.0,44.8,28.97,East,91,4.0,4.0,28,0.00,,BKN050,0.00,VWS V14.01,2013-09-24 21:19:00,
2013-09-24 16:21:00,80.4,46.2,28.97,East,101,4.0,4.0,30,0.00,,BKN050,0.00,VWS V14.01,2013-09-24 21:21:00,
2013-09-24 16:22:00,80.1,45.9,28.97,SE,129,3.1,3.1,30,0.00,,BKN050,0.00,VWS V14.01,2013-09-24 21:22:00,
2013-09-24 16:24:00,79.7,45.6,28.97,SE,136,4.9,7.6,30,0.00,,BKN050,0.00,VWS V14.01,2013-09-24 21:24:00,
2013-09-24 16:25:00,79.7,45.6,28.97,ESE,115,2.7,3.1,30,0.00,,BKN050,0.00,VWS V14.01,2013-09-24 21:25:00,
2013-09-24 16:26:00,79.5,45.4,28.97,SE,131,4.0,4.0,30,0.00,,BKN050,0.00,VWS V14.01,2013-09-24 21:26:00,
2013-09-24 16:27:00,79.5,45.4,28.97,SSE,163,3.1,4.9,30,0.00,,BKN050,0.00,VWS V14.01,2013-09-24 21:27:00,
2013-09-24 16:28:00,79.5,45.4,28.97,SSE,157,3.1,3.1,30,0.00,,BKN050,0.00,VWS V14.01,2013-09-24 21:28:00,
2013-09-24 16:29:00,79.3,45.2,28.97,ESE,109,0.0,4.0,30,0.00,,BKN050,0.00,VWS V14.01,2013-09-24 21:29:00,
2013-09-24 16:30:00,79.3,45.2,28.97,East,87,3.1,3.1,30,0.00,,BKN050,0.00,VWS V14.01,2013-09-24 21:30:00,
2013-09-24 16:31:00,79.9,45.7,28.97,SSW,211,3.1,3.1,30,0.00,,BKN050,0.00,VWS V14.01,2013-09-24 21:31:00,
2013-09-24 16:32:00,80.1,45.9,28.97,SE,131,4.0,6.3,30,0.00,,BKN050,0.00,VWS V14.01,2013-09-24 21:32:00,
2013-09-24 16:34:00,80.8,44.7,28.97,ESE,118,4.9,4.9,28,0.00,,BKN050,0.00,VWS V14.01,2013-09-24 21:34:00,
2013-09-24 16:35:00,81.3,45.1,28.97,ESE,106,5.8,5.8,28,0.00,,BKN050,0.00,VWS V14.01,2013-09-24 21:35:00,
2013-09-24 16:36:00,81.7,45.4,28.97,ESE,110,5.8,5.8,28,0.00,,BKN050,0.00,VWS V14.01,2013-09-24 21:36:00,
2013-09-24 16:37:00,81.9,45.6,28.97,ESE,105,4.9,5.8,28,0.00,,BKN050,0.00,VWS V14.01,2013-09-24 21:37:00,
2013-09-24 16:40:00,82.4,46.1,28.97,East,84,2.2,3.6,28,0.00,,BKN050,0.00,VWS V14.01,2013-09-24 21:40:00,
2013-09-24 16:42:00,82.8,46.4,28.97,South,169,2.2,4.0,28,0.00,,BKN050,0.00,VWS V14.01,2013-09-24 21:42:00,
2013-09-24 16:43:00,82.9,46.5,28.97,ESE,118,3.6,3.6,28,0.00,,BKN050,0.00,VWS V14.01,2013-09-24 21:43:00,
2013-09-24 16:45:00,82.9,46.5,28.97,SSE,148,5.4,5.8,28,0.00,,BKN050,0.00,VWS V14.01,2013-09-24 21:45:00,
2013-09-24 16:47:00,82.4,46.1,28.97,East,88,0.0,0.0,28,0.00,,BKN050,0.00,VWS V14.01,2013-09-24 21:47:00,
2013-09-24 16:49:00,81.7,45.4,28.97,ESE,121,3.1,5.4,28,0.00,,BKN050,0.00,VWS V14.01,2013-09-24 21:49:00,
2013-09-24 16:50:00,81.1,45.0,28.97,SE,127,3.6,4.0,28,0.00,,BKN050,0.00,VWS V14.01,2013-09-24 21:50:00,
2013-09-24 16:51:00,80.8,44.7,28.97,ESE,102,5.8,6.3,28,0.00,,BKN050,0.00,VWS V14.01,2013-09-24 21:51:00,
2013-09-24 16:52:00,80.1,45.9,28.97,ESE,110,4.9,5.8,30,0.00,,BKN050,0.00,VWS V14.01,2013-09-24 21:52:00,
2013-09-24 16:54:00,79.7,45.6,28.97,ENE,58,0.0,3.1,30,0.00,,BKN050,0.00,VWS V14.01,2013-09-24 21:54:00,
2013-09-24 16:55:00,79.5,45.4,28.97,East,86,3.1,3.1,30,0.00,,BKN050,0.00,VWS V14.01,2013-09-24 21:55:00,
2013-09-24 16:56:00,79.5,45.4,28.97,ENE,78,2.7,3.1,30,0.00,,BKN050,0.00,VWS V14.01,2013-09-24 21:56:00,
2013-09-24 16:57:00,79.3,45.2,28.97,ENE,66,3.1,3.6,30,0.00,,BKN050,0.00,VWS V14.01,2013-09-24 21:57:00,
2013-09-24 16:59:00,79.2,45.1,28.97,NE,44,2.2,5.4,30,0.00,,BKN050,0.00,VWS V14.01,2013-09-24 21:59:00,
2013-09-24 17:01:00,79.2,45.1,28.97,ESE,112,4.0,4.0,30,0.00,,BKN050,0.00,VWS V14.01,2013-09-24 22:01:00,
2013-09-24 17:02:00,79.2,45.1,28.97,NE,54,0.0,6.3,30,0.00,,CLR,0.00,VWS V14.01,2013-09-24 22:02:00,
2013-09-24 17:03:00,79.2,45.1,28.97,ENE,78,2.2,2.2,30,0.00,,CLR,0.00,VWS V14.01,2013-09-24 22:03:00,
2013-09-24 17:04:00,79.0,44.9,28.97,NE,51,2.7,3.6,30,0.00,,CLR,0.00,VWS V14.01,2013-09-24 22:04:00,
2013-09-24 17:06:00,79.0,44.9,28.97,South,173,4.9,4.9,30,0.00,,CLR,0.00,VWS V14.01,2013-09-24 22:06:00,
2013-09-24 17:07:00,79.0,44.9,28.97,East,99,2.2,4.0,30,0.00,,CLR,0.00,VWS V14.01,2013-09-24 22:07:00,
2013-09-24 17:09:00,78.8,44.8,28.97,ENE,69,0.0,2.2,30,0.00,,CLR,0.00,VWS V14.01,2013-09-24 22:09:00,
2013-09-24 17:10:00,79.0,44.9,28.97,ESE,112,0.0,3.1,30,0.00,,CLR,0.00,VWS V14.01,2013-09-24 22:10:00,
2013-09-24 17:12:00,79.2,45.1,28.97,East,97,0.0,3.1,30,0.00,,CLR,0.00,VWS V14.01,2013-09-24 22:12:00,
2013-09-24 17:15:00,79.7,45.6,28.97,SSE,157,4.0,4.0,30,0.00,,CLR,0.00,VWS V14.01,2013-09-24 22:15:00,
2013-09-24 17:17:00,80.1,45.9,28.97,ENE,76,3.1,3.6,30,0.00,,CLR,0.00,VWS V14.01,2013-09-24 22:17:00,
2013-09-24 17:18:00,80.1,45.9,28.97,ESE,114,3.1,3.1,30,0.00,,CLR,0.00,VWS V14.01,2013-09-24 22:18:00,
2013-09-24 17:20:00,80.4,46.2,28.97,ESE,113,3.6,4.0,30,0.00,,CLR,0.00,VWS V14.01,2013-09-24 22:20:00,
2013-09-24 17:23:00,80.8,44.7,28.97,SE,127,5.4,6.3,28,0.00,,CLR,0.00,VWS V14.01,2013-09-24 22:23:00,
2013-09-24 17:25:00,80.8,44.7,28.97,ESE,122,3.6,3.6,28,0.00,,CLR,0.00,VWS V14.01,2013-09-24 22:25:00,
2013-09-24 17:26:00,80.6,44.5,28.97,SE,126,2.7,3.6,28,0.00,,CLR,0.00,VWS V14.01,2013-09-24 22:26:00,
2013-09-24 17:29:00,80.2,46.0,28.97,ESE,110,0.0,2.7,30,0.00,,CLR,0.00,VWS V14.01,2013-09-24 22:29:00,
2013-09-24 17:30:00,80.1,45.9,28.97,East,81,2.7,3.1,30,0.00,,CLR,0.00,VWS V14.01,2013-09-24 22:30:00,
2013-09-24 17:32:00,79.9,45.7,28.97,ESE,104,0.0,4.0,30,0.00,,CLR,0.00,VWS V14.01,2013-09-24 22:32:00,
2013-09-24 17:34:00,79.9,45.7,28.97,ESE,112,3.1,3.1,30,0.00,,CLR,0.00,VWS V14.01,2013-09-24 22:34:00,
2013-09-24 17:36:00,79.5,45.4,28.97,ESE,109,0.0,3.1,30,0.00,,CLR,0.00,VWS V14.01,2013-09-24 22:36:00,
2013-09-24 17:37:00,79.3,45.2,28.97,ESE,109,0.0,0.0,30,0.00,,CLR,0.00,VWS V14.01,2013-09-24 22:37:00,
2013-09-24 17:38:00,79.2,45.1,28.97,ENE,70,3.6,4.5,30,0.00,,CLR,0.00,VWS V14.01,2013-09-24 22:38:00,
2013-09-24 17:39:00,78.8,44.8,28.97,ESE,108,2.7,4.5,30,0.00,,CLR,0.00,VWS V14.01,2013-09-24 22:39:00,
2013-09-24 17:42:00,78.3,44.3,28.97,East,87,0.0,0.0,30,0.00,,CLR,0.00,VWS V14.01,2013-09-24 22:42:00,
2013-09-24 17:45:00,77.9,44.0,28.97,East,90,0.0,2.2,30,0.00,,CLR,0.00,VWS V14.01,2013-09-24 22:45:00,
2013-09-24 17:46:00,77.7,43.8,28.97,East,80,0.0,2.2,30,0.00,,CLR,0.00,VWS V14.01,2013-09-24 22:46:00,
2013-09-24 17:47:00,77.7,43.8,28.97,East,94,0.0,3.6,30,0.00,,CLR,0.00,VWS V14.01,2013-09-24 22:47:00,
2013-09-24 17:50:00,77.9,44.0,28.97,East,92,2.7,5.8,30,0.00,,CLR,0.00,VWS V14.01,2013-09-24 22:50:00,
2013-09-24 17:51:00,77.9,44.0,28.97,East,86,0.0,2.7,30,0.00,,CLR,0.00,VWS V14.01,2013-09-24 22:51:00,
2013-09-24 17:53:00,78.1,44.2,28.97,East,87,2.2,2.2,30,0.00,,CLR,0.00,VWS V14.01,2013-09-24 22:53:00,
2013-09-24 17:56:00,78.3,44.3,28.97,East,89,3.1,4.5,30,0.00,,CLR,0.00,VWS V14.01,2013-09-24 22:56:00,
2013-09-24 17:58:00,78.3,44.3,28.97,East,90,3.1,3.6,30,0.00,,CLR,0.00,VWS V14.01,2013-09-24 22:58:00,
2013-09-24 17:59:00,78.1,44.2,28.97,East,89,0.0,3.6,30,0.00,,CLR,0.00,VWS V14.01,2013-09-24 22:59:00,
2013-09-24 18:00:00,78.1,44.2,28.97,East,82,0.0,3.1,30,0.00,,CLR,0.00,VWS V14.01,2013-09-24 23:00:00,
2013-09-24 18:01:00,77.9,44.0,28.97,East,94,3.6,3.6,30,0.00,,FEW080,0.00,VWS V14.01,2013-09-24 23:01:00,
2013-09-24 18:03:00,77.9,44.0,28.97,East,94,0.0,3.1,30,0.00,,FEW080,0.00,VWS V14.01,2013-09-24 23:03:00,
2013-09-24 18:04:00,77.7,43.8,28.97,East,86,3.1,3.1,30,0.00,,FEW080,0.00,VWS V14.01,2013-09-24 23:04:00,
2013-09-24 18:05:00,77.5,43.7,28.97,East,79,3.6,3.6,30,0.00,,FEW080,0.00,VWS V14.01,2013-09-24 23:05:00,
2013-09-24 18:07:00,77.2,43.4,28.97,East,85,4.9,4.9,30,0.00,,FEW080,0.00,VWS V14.01,2013-09-24 23:07:00,
2013-09-24 18:08:00,77.2,43.4,28.97,East,91,0.0,3.6,30,0.00,,FEW080,0.00,VWS V14.01,2013-09-24 23:08:00,
2013-09-24 18:10:00,76.8,43.1,28.97,ENE,75,3.1,3.1,30,0.00,,FEW080,0.00,VWS V14.01,2013-09-24 23:10:00,
2013-09-24 18:11:00,76.6,42.9,28.97,East,98,2.2,2.7,30,0.00,,FEW080,0.00,VWS V14.01,2013-09-24 23:11:00,
2013-09-24 18:12:00,76.5,42.8,28.97,East,83,4.0,4.0,30,0.00,,FEW080,0.00,VWS V14.01,2013-09-24 23:12:00,
2013-09-24 18:13:00,76.5,42.8,28.97,East,93,2.7,4.0,30,0.00,,FEW080,0.00,VWS V14.01,2013-09-24 23:13:00,
2013-09-24 18:15:00,76.5,42.8,28.97,East,93,0.0,0.0,30,0.00,,FEW080,0.00,VWS V14.01,2013-09-24 23:15:00,
2013-09-24 18:18:00,76.1,42.5,28.97,East,93,0.0,3.1,30,0.00,,FEW080,0.00,VWS V14.01,2013-09-24 23:18:00,
2013-09-24 18:20:00,75.9,42.3,28.97,East,87,2.7,2.7,30,0.00,,FEW080,0.00,VWS V14.01,2013-09-24 23:20:00,
2013-09-24 18:22:00,75.7,42.1,28.97,East,92,0.0,2.2,30,0.00,,FEW080,0.00,VWS V14.01,2013-09-24 23:22:00,
2013-09-24 18:24:00,75.4,41.8,28.97,ENE,58,2.2,2.2,30,0.00,,FEW080,0.00,VWS V14.01,2013-09-24 23:24:00,
2013-09-24 18:25:00,75.2,41.7,28.97,ENE,58,0.0,2.2,30,0.00,,FEW080,0.00,VWS V14.01,2013-09-24 23:25:00,
2013-09-24 18:29:00,74.7,42.9,28.97,ENE,69,0.0,0.0,32,0.00,,FEW080,0.00,VWS V14.01,2013-09-24 23:29:00,
2013-09-24 18:30:00,74.7,42.9,28.97,ENE,68,2.7,2.7,32,0.00,,FEW080,0.00,VWS V14.01,2013-09-24 23:30:00,
2013-09-24 18:31:00,74.5,42.7,28.97,ENE,69,4.0,4.0,32,0.00,,FEW080,0.00,VWS V14.01,2013-09-24 23:31:00,
2013-09-24 18:34:00,74.1,42.4,28.97,East,98,2.7,2.7,32,0.00,,FEW080,0.00,VWS V14.01,2013-09-24 23:34:00,
2013-09-24 18:36:00,73.8,42.1,28.97,East,92,0.0,2.7,32,0.00,,FEW080,0.00,VWS V14.01,2013-09-24 23:36:00,
2013-09-24 18:37:00,73.8,42.1,28.97,East,101,2.7,2.7,32,0.00,,FEW080,0.00,VWS V14.01,2013-09-24 23:37:00,
2013-09-24 18:39:00,73.4,41.8,28.97,East,100,0.0,2.2,32,0.00,,FEW080,0.00,VWS V14.01,2013-09-24 23:39:00,
2013-09-24 18:41:00,73.2,41.6,28.97,East,100,2.2,2.2,32,0.00,,FEW080,0.00,VWS V14.01,2013-09-24 23:41:00,
2013-09-24 18:42:00,72.9,41.3,28.97,East,80,3.6,4.0,32,0.00,,FEW080,0.00,VWS V14.01,2013-09-24 23:42:00,
2013-09-24 18:45:00,72.5,41.0,28.97,East,85,3.1,5.4,32,0.00,,FEW080,0.00,VWS V14.01,2013-09-24 23:45:00,
2013-09-24 18:46:00,72.5,41.0,28.97,East,81,3.1,4.0,32,0.00,,FEW080,0.00,VWS V14.01,2013-09-24 23:46:00,
2013-09-24 18:47:00,72.3,40.8,28.97,East,86,3.6,4.0,32,0.00,,FEW080,0.00,VWS V14.01,2013-09-24 23:47:00,
2013-09-24 18:48:00,72.3,40.8,28.97,East,91,3.6,3.6,32,0.00,,FEW080,0.00,VWS V14.01,2013-09-24 23:48:00,
2013-09-24 18:51:00,72.0,40.5,28.97,East,94,2.7,2.7,32,0.00,,FEW080,0.00,VWS V14.01,2013-09-24 23:51:00,
2013-09-24 18:52:00,71.8,40.4,28.97,East,94,3.1,3.1,32,0.00,,FEW080,0.00,VWS V14.01,2013-09-24 23:52:00,
2013-09-24 18:54:00,71.6,40.2,28.97,East,80,4.0,4.0,32,0.00,,FEW080,0.00,VWS V14.01,2013-09-24 23:54:00,
2013-09-24 18:55:00,71.6,40.2,28.97,ESE,105,3.6,4.9,32,0.00,,FEW080,0.00,VWS V14.01,2013-09-24 23:55:00,
2013-09-24 18:56:00,71.4,41.6,28.97,East,83,3.6,3.6,34,0.00,,FEW080,0.00,VWS V14.01,2013-09-24 23:56:00,
2013-09-24 18:57:00,71.4,41.6,28.97,East,88,3.1,3.6,34,0.00,,FEW080,0.00,VWS V14.01,2013-09-24 23:57:00,
2013-09-24 18:59:00,71.2,41.5,28.97,East,89,2.7,3.1,34,0.00,,FEW080,0.00,VWS V14.01,2013-09-24 23:59:00,
2013-09-24 19:01:00,71.1,41.3,28.97,East,93,0.0,0.0,34,0.00,,SCT090,0.00,VWS V14.01,2013-09-25 00:01:00,
2013-09-24 19:02:00,71.1,41.3,28.97,East,94,3.1,4.0,34,0.00,,SCT090,0.00,VWS V14.01,2013-09-25 00:02:00,
2013-09-24 19:03:00,71.1,41.3,28.97,East,93,2.7,3.1,34,0.00,,SCT090,0.00,VWS V14.01,2013-09-25 00:03:00,
2013-09-24 19:04:00,70.7,41.0,28.97,East,84,3.6,3.6,34,0.00,,SCT090,0.00,VWS V14.01,2013-09-25 00:04:00,
2013-09-24 19:07:00,70.3,40.7,28.97,East,84,0.0,0.0,34,0.00,,SCT090,0.00,VWS V14.01,2013-09-25 00:07:00,
2013-09-24 19:08:00,70.3,40.7,28.97,East,96,3.1,3.1,34,0.00,,SCT090,0.00,VWS V14.01,2013-09-25 00:08:00,
2013-09-24 19:10:00,70.2,40.5,28.97,East,96,0.0,0.0,34,0.00,,SCT090,0.00,VWS V14.01,2013-09-25 00:10:00,
2013-09-24 19:12:00,69.8,40.2,28.97,East,81,3.1,3.1,34,0.00,,SCT090,0.00,VWS V14.01,2013-09-25 00:12:00,
2013-09-24 19:13:00,69.8,40.2,28.97,East,83,2.7,3.1,34,0.00,,SCT090,0.00,VWS V14.01,2013-09-25 00:13:00,
2013-09-24 19:14:00,69.6,40.0,28.97,East,84,0.0,2.7,34,0.00,,SCT090,0.00,VWS V14.01,2013-09-25 00:14:00,
2013-09-24 19:15:00,69.6,40.0,28.97,East,90,2.2,3.6,34,0.00,,SCT090,0.00,VWS V14.01,2013-09-25 00:15:00,
2013-09-24 19:18:00,69.4,39.9,28.97,East,91,3.1,3.1,34,0.00,,SCT090,0.00,VWS V14.01,2013-09-25 00:18:00,
2013-09-24 19:19:00,69.3,39.7,28.97,East,95,0.0,3.1,34,0.00,,SCT090,0.00,VWS V14.01,2013-09-25 00:19:00,
2013-09-24 19:20:00,69.3,39.7,28.97,East,95,2.7,2.7,34,0.00,,SCT090,0.00,VWS V14.01,2013-09-25 00:20:00,
2013-09-24 19:22:00,69.1,39.6,28.97,East,90,4.9,4.9,34,0.00,,SCT090,0.00,VWS V14.01,2013-09-25 00:22:00,
2013-09-24 19:24:00,68.9,39.4,28.97,East,89,3.6,3.6,34,0.00,,SCT090,0.00,VWS V14.01,2013-09-25 00:24:00,
2013-09-24 19:25:00,68.9,39.4,28.97,East,91,3.6,3.6,34,0.00,,SCT090,0.00,VWS V14.01,2013-09-25 00:25:00,
2013-09-24 19:28:00,68.9,39.4,28.97,East,85,4.0,4.0,34,0.00,,SCT090,0.00,VWS V14.01,2013-09-25 00:28:00,
2013-09-24 19:29:00,68.9,39.4,28.97,ENE,78,4.0,4.0,34,0.00,,SCT090,0.00,VWS V14.01,2013-09-25 00:29:00,
2013-09-24 19:31:00,68.7,39.2,28.97,East,84,2.7,4.9,34,0.00,,SCT090,0.00,VWS V14.01,2013-09-25 00:31:00,
2013-09-24 19:34:00,68.7,39.2,28.97,East,94,0.0,2.7,34,0.00,,SCT090,0.00,VWS V14.01,2013-09-25 00:34:00,
2013-09-24 19:35:00,68.7,39.2,28.97,East,98,2.2,2.7,34,0.00,,SCT090,0.00,VWS V14.01,2013-09-25 00:35:00,
2013-09-24 19:36:00,68.7,39.2,28.97,ENE,57,3.6,5.4,34,0.00,,SCT090,0.00,VWS V14.01,2013-09-25 00:36:00,
2013-09-24 19:39:00,68.5,39.1,28.97,East,91,2.2,3.1,34,0.00,,SCT090,0.00,VWS V14.01,2013-09-25 00:39:00,
2013-09-24 19:40:00,68.5,39.1,28.97,East,86,3.1,4.0,34,0.00,,SCT090,0.00,VWS V14.01,2013-09-25 00:40:00,
2013-09-24 19:41:00,68.5,39.1,28.97,East,83,2.7,3.6,34,0.00,,SCT090,0.00,VWS V14.01,2013-09-25 00:41:00,
2013-09-24 19:42:00,68.5,43.3,28.97,East,101,3.6,4.9,40,0.00,,SCT090,0.00,VWS V14.01,2013-09-25 00:42:00,
2013-09-24 19:44:00,68.4,43.1,28.97,East,91,2.7,3.6,40,0.00,,SCT090,0.00,VWS V14.01,2013-09-25 00:44:00,
2013-09-24 19:45:00,68.4,43.1,28.97,East,83,3.6,4.0,40,0.00,,SCT090,0.00,VWS V14.01,2013-09-25 00:45:00,
2013-09-24 19:46:00,68.4,43.1,28.97,East,82,3.1,3.6,40,0.00,,SCT090,0.00,VWS V14.01,2013-09-25 00:46:00,
2013-09-24 19:47:00,68.4,43.1,28.97,ESE,108,2.7,3.1,40,0.00,,SCT090,0.00,VWS V14.01,2013-09-25 00:47:00,
2013-09-24 19:49:00,68.4,43.1,28.97,East,96,2.2,4.0,40,0.00,,SCT090,0.00,VWS V14.01,2013-09-25 00:49:00,
2013-09-24 19:50:00,68.4,43.1,28.97,East,95,2.7,2.7,40,0.00,,SCT090,0.00,VWS V14.01,2013-09-25 00:50:00,
2013-09-24 19:51:00,68.4,43.1,28.97,East,95,3.1,3.1,40,0.00,,SCT090,0.00,VWS V14.01,2013-09-25 00:51:00,
2013-09-24 19:52:00,68.4,43.1,28.97,East,86,4.0,4.0,40,0.00,,SCT090,0.00,VWS V14.01,2013-09-25 00:52:00,
2013-09-24 19:53:00,68.4,43.1,29.00,ENE,76,4.0,4.0,40,0.00,,SCT090,0.00,VWS V14.01,2013-09-25 00:53:00,
2013-09-24 19:54:00,68.4,43.1,29.00,East,79,2.7,4.0,40,0.00,,SCT090,0.00,VWS V14.01,2013-09-25 00:54:00,
2013-09-24 19:55:00,68.4,43.1,29.00,East,79,2.2,2.2,40,0.00,,SCT090,0.00,VWS V14.01,2013-09-25 00:55:00,
2013-09-24 19:57:00,68.4,43.1,29.00,East,88,4.0,4.0,40,0.00,,SCT090,0.00,VWS V14.01,2013-09-25 00:57:00,
2013-09-24 19:58:00,68.4,43.1,29.00,East,91,0.0,4.0,40,0.00,,SCT090,0.00,VWS V14.01,2013-09-25 00:58:00,
2013-09-24 19:59:00,68.5,43.3,29.00,East,91,0.0,3.1,40,0.00,,SCT090,0.00,VWS V14.01,2013-09-25 00:59:00,
2013-09-24 20:01:00,68.5,43.3,29.00,East,81,5.4,5.4,40,0.00,,CLR,0.00,VWS V14.01,2013-09-25 01:01:00,
2013-09-24 20:03:00,68.5,43.3,29.00,ESE,102,2.7,2.7,40,0.00,,CLR,0.00,VWS V14.01,2013-09-25 01:03:00,
2013-09-24 20:04:00,68.7,43.5,29.00,East,93,4.0,4.0,40,0.00,,CLR,0.00,VWS V14.01,2013-09-25 01:04:00,
2013-09-24 20:06:00,68.5,43.3,29.00,East,93,0.0,3.1,40,0.00,,CLR,0.00,VWS V14.01,2013-09-25 01:06:00,
2013-09-24 20:09:00,68.7,43.5,29.00,East,100,2.7,3.6,40,0.00,,CLR,0.00,VWS V14.01,2013-09-25 01:09:00,
2013-09-24 20:11:00,68.7,43.5,29.00,ENE,78,5.4,5.4,40,0.00,,CLR,0.00,VWS V14.01,2013-09-25 01:11:00,
2013-09-24 20:12:00,68.7,43.5,29.00,East,85,3.1,4.5,40,0.00,,CLR,0.00,VWS V14.01,2013-09-25 01:12:00,
2013-09-24 20:15:00,68.9,43.6,29.00,East,82,2.7,5.8,40,0.00,,CLR,0.00,VWS V14.01,2013-09-25 01:15:00,
2013-09-24 20:16:00,68.9,43.6,29.00,East,83,3.1,3.1,40,0.00,,CLR,0.00,VWS V14.01,2013-09-25 01:16:00,
2013-09-24 20:17:00,69.1,43.8,29.00,ENE,61,4.0,6.3,40,0.00,,CLR,0.00,VWS V14.01,2013-09-25 01:17:00,
2013-09-24 20:18:00,69.1,43.8,29.00,East,81,4.9,4.9,40,0.00,,CLR,0.00,VWS V14.01,2013-09-25 01:18:00,
2013-09-24 20:19:00,69.1,43.8,29.00,East,97,3.1,6.7,40,0.00,,CLR,0.00,VWS V14.01,2013-09-25 01:19:00,
2013-09-24 20:20:00,69.1,43.8,29.00,East,85,5.4,5.4,40,0.00,,CLR,0.00,VWS V14.01,2013-09-25 01:20:00,
2013-09-24 20:22:00,69.1,39.6,29.00,East,92,3.1,6.3,34,0.00,,CLR,0.00,VWS V14.01,2013-09-25 01:22:00,
2013-09-24 20:23:00,69.3,39.7,29.00,ENE,57,3.1,4.0,34,0.00,,CLR,0.00,VWS V14.01,2013-09-25 01:23:00,
2013-09-24 20:24:00,69.3,39.7,29.00,East,93,3.1,4.0,34,0.00,,CLR,0.00,VWS V14.01,2013-09-25 01:24:00,
2013-09-24 20:26:00,69.3,39.7,29.00,East,90,3.6,3.6,34,0.00,,CLR,0.00,VWS V14.01,2013-09-25 01:26:00,
2013-09-24 20:27:00,69.3,39.7,29.00,East,96,3.1,4.9,34,0.00,,CLR,0.00,VWS V14.01,2013-09-25 01:27:00,
2013-09-24 20:29:00,69.3,39.7,29.00,East,91,2.7,3.1,34,0.00,,CLR,0.00,VWS V14.01,2013-09-25 01:29:00,
2013-09-24 20:31:00,69.3,39.7,29.00,East,95,2.7,3.1,34,0.00,,CLR,0.00,VWS V14.01,2013-09-25 01:31:00,
2013-09-24 20:32:00,69.3,39.7,29.00,East,95,2.2,2.2,34,0.00,,CLR,0.00,VWS V14.01,2013-09-25 01:32:00,
2013-09-24 20:34:00,69.1,39.6,29.00,ESE,103,3.1,3.6,34,0.00,,CLR,0.00,VWS V14.01,2013-09-25 01:34:00,
2013-09-24 20:35:00,69.1,39.6,29.00,East,92,2.2,3.6,34,0.00,,CLR,0.00,VWS V14.01,2013-09-25 01:35:00,
2013-09-24 20:38:00,69.1,39.6,29.00,East,94,5.8,5.8,34,0.00,,CLR,0.00,VWS V14.01,2013-09-25 01:38:00,
2013-09-24 20:39:00,69.1,39.6,29.00,ESE,111,3.6,4.0,34,0.00,,CLR,0.00,VWS V14.01,2013-09-25 01:39:00,
2013-09-24 20:40:00,69.1,39.6,29.00,NE,54,3.1,3.1,34,0.00,,CLR,0.00,VWS V14.01,2013-09-25 01:40:00,
2013-09-24 20:41:00,69.1,39.6,29.00,East,81,5.4,5.4,34,0.00,,CLR,0.00,VWS V14.01,2013-09-25 01:41:00,
2013-09-24 20:42:00,69.1,39.6,29.00,ENE,65,2.2,3.6,34,0.00,,CLR,0.00,VWS V14.01,2013-09-25 01:42:00,
2013-09-24 20:43:00,69.1,39.6,29.00,East,90,3.6,4.0,34,0.00,,CLR,0.00,VWS V14.01,2013-09-25 01:43:00,
2013-09-24 20:45:00,68.9,39.4,29.00,East,97,4.0,4.0,34,0.00,,CLR,0.00,VWS V14.01,2013-09-25 01:45:00,
2013-09-24 20:48:00,68.9,39.4,29.00,East,90,2.7,4.0,34,0.00,,CLR,0.00,VWS V14.01,2013-09-25 01:48:00,
2013-09-24 20:49:00,68.9,39.4,29.00,East,88,0.0,3.6,34,0.00,,CLR,0.00,VWS V14.01,2013-09-25 01:49:00,
2013-09-24 20:50:00,68.7,39.2,29.00,East,95,2.7,4.9,34,0.00,,CLR,0.00,VWS V14.01,2013-09-25 01:50:00,
2013-09-24 20:51:00,68.7,39.2,29.00,East,93,3.6,3.6,34,0.00,,CLR,0.00,VWS V14.01,2013-09-25 01:51:00,
2013-09-24 20:52:00,68.7,43.5,29.00,ESE,105,3.6,3.6,40,0.00,,CLR,0.00,VWS V14.01,2013-09-25 01:52:00,
2013-09-24 20:54:00,68.7,43.5,29.00,East,85,0.0,0.0,40,0.00,,CLR,0.00,VWS V14.01,2013-09-25 01:54:00,
2013-09-24 20:55:00,68.7,43.5,29.00,East,82,3.6,4.0,40,0.00,,CLR,0.00,VWS V14.01,2013-09-25 01:55:00,
2013-09-24 20:56:00,68.7,43.5,29.00,East,85,4.0,4.0,40,0.00,,CLR,0.00,VWS V14.01,2013-09-25 01:56:00,
2013-09-24 20:57:00,68.7,43.5,29.00,NNE,32,0.0,4.0,40,0.00,,CLR,0.00,VWS V14.01,2013-09-25 01:57:00,
2013-09-24 21:00:00,68.7,43.5,29.00,East,98,0.0,0.0,40,0.00,,CLR,0.00,VWS V14.01,2013-09-25 02:00:00,
2013-09-24 21:01:00,68.7,43.5,29.00,East,98,0.0,0.0,40,0.00,,CLR,0.00,VWS V14.01,2013-09-25 02:01:00,
2013-09-24 21:02:00,68.5,43.3,29.00,East,94,2.7,4.0,40,0.00,,CLR,0.00,VWS V14.01,2013-09-25 02:02:00,
2013-09-24 21:04:00,68.5,43.3,29.00,East,94,3.1,3.1,40,0.00,,CLR,0.00,VWS V14.01,2013-09-25 02:04:00,
2013-09-24 21:06:00,68.5,43.3,29.00,East,88,3.1,3.1,40,0.00,,CLR,0.00,VWS V14.01,2013-09-25 02:06:00,
2013-09-24 21:08:00,68.5,43.3,29.03,East,87,0.0,0.0,40,0.00,,CLR,0.00,VWS V14.01,2013-09-25 02:08:00,
2013-09-24 21:09:00,68.5,43.3,29.03,ENE,72,2.2,3.1,40,0.00,,CLR,0.00,VWS V14.01,2013-09-25 02:09:00,
2013-09-24 21:10:00,68.5,43.3,29.03,ENE,72,0.0,0.0,40,0.00,,CLR,0.00,VWS V14.01,2013-09-25 02:10:00,
2013-09-24 21:11:00,68.5,43.3,29.03,East,97,2.2,3.1,40,0.00,,CLR,0.00,VWS V14.01,2013-09-25 02:11:00,
2013-09-24 21:14:00,68.5,43.3,29.03,East,97,0.0,3.6,40,0.00,,CLR,0.00,VWS V14.01,2013-09-25 02:14:00,
2013-09-24 21:15:00,68.5,43.3,29.03,ESE,105,2.7,3.6,40,0.00,,CLR,0.00,VWS V14.01,2013-09-25 02:15:00,
2013-09-24 21:16:00,68.5,43.3,29.03,East,99,3.1,5.4,40,0.00,,CLR,0.00,VWS V14.01,2013-09-25 02:16:00,
2013-09-24 21:17:00,68.5,43.3,29.03,East,97,3.6,3.6,40,0.00,,CLR,0.00,VWS V14.01,2013-09-25 02:17:00,
2013-09-24 21:19:00,68.5,43.3,29.03,East,90,2.7,2.7,40,0.00,,CLR,0.00,VWS V14.01,2013-09-25 02:19:00,
2013-09-24 21:21:00,68.5,43.3,29.03,East,84,2.7,5.8,40,0.00,,CLR,0.00,VWS V14.01,2013-09-25 02:21:00,
2013-09-24 21:22:00,68.5,43.3,29.03,East,85,3.1,3.1,40,0.00,,CLR,0.00,VWS V14.01,2013-09-25 02:22:00,
2013-09-24 21:24:00,68.5,43.3,29.00,ENE,77,3.1,3.1,40,0.00,,CLR,0.00,VWS V14.01,2013-09-25 02:24:00,
2013-09-24 21:27:00,68.4,43.1,29.00,East,89,3.1,3.1,40,0.00,,CLR,0.00,VWS V14.01,2013-09-25 02:27:00,
2013-09-24 21:28:00,68.4,43.1,29.00,East,89,0.0,3.1,40,0.00,,CLR,0.00,VWS V14.01,2013-09-25 02:28:00,
2013-09-24 21:31:00,68.4,43.1,29.00,East,90,2.2,3.1,40,0.00,,CLR,0.00,VWS V14.01,2013-09-25 02:31:00,
2013-09-24 21:32:00,68.4,43.1,29.00,East,97,0.0,3.1,40,0.00,,CLR,0.00,VWS V14.01,2013-09-25 02:32:00,
2013-09-24 21:33:00,68.4,43.1,29.00,East,80,3.6,3.6,40,0.00,,CLR,0.00,VWS V14.01,2013-09-25 02:33:00,
2013-09-24 21:34:00,68.4,43.1,29.00,East,85,0.0,5.8,40,0.00,,CLR,0.00,VWS V14.01,2013-09-25 02:34:00,
2013-09-24 21:36:00,68.4,43.1,29.00,East,99,0.0,2.2,40,0.00,,CLR,0.00,VWS V14.01,2013-09-25 02:36:00,
2013-09-24 21:37:00,68.4,43.1,29.00,East,90,0.0,0.0,40,0.00,,CLR,0.00,VWS V14.01,2013-09-25 02:37:00,
2013-09-24 21:38:00,68.4,43.1,29.00,East,97,0.0,0.0,40,0.00,,CLR,0.00,VWS V14.01,2013-09-25 02:38:00,
2013-09-24 21:39:00,68.2,43.0,29.00,East,97,0.0,0.0,40,0.00,,CLR,0.00,VWS V14.01,2013-09-25 02:39:00,
2013-09-24 21:41:00,68.2,43.0,29.00,East,97,3.1,3.1,40,0.00,,CLR,0.00,VWS V14.01,2013-09-25 02:41:00,
2013-09-24 21:43:00,68.2,43.0,29.00,East,97,0.0,0.0,40,0.00,,CLR,0.00,VWS V14.01,2013-09-25 02:43:00,
2013-09-24 21:44:00,68.2,43.0,29.00,East,97,0.0,2.7,40,0.00,,CLR,0.00,VWS V14.01,2013-09-25 02:44:00,
2013-09-24 21:47:00,68.0,45.3,29.00,East,97,0.0,0.0,44,0.00,,CLR,0.00,VWS V14.01,2013-09-25 02:47:00,
2013-09-24 21:48:00,68.0,45.3,29.00,East,96,0.0,0.0,44,0.00,,CLR,0.00,VWS V14.01,2013-09-25 02:48:00,
2013-09-24 21:49:00,68.0,45.3,29.00,East,96,0.0,0.0,44,0.00,,CLR,0.00,VWS V14.01,2013-09-25 02:49:00,
2013-09-24 21:53:00,68.0,45.3,29.03,East,96,0.0,0.0,44,0.00,,CLR,0.00,VWS V14.01,2013-09-25 02:53:00,
2013-09-24 21:54:00,68.0,45.3,29.03,East,96,0.0,2.7,44,0.00,,CLR,0.00,VWS V14.01,2013-09-25 02:54:00,
2013-09-24 21:58:00,67.8,45.1,29.03,East,96,0.0,0.0,44,0.00,,CLR,0.00,VWS V14.01,2013-09-25 02:58:00,
2013-09-24 21:59:00,67.8,45.1,29.03,East,96,0.0,0.0,44,0.00,,CLR,0.00,VWS V14.01,2013-09-25 02:59:00,
2013-09-24 22:00:00,67.8,45.1,29.03,East,96,0.0,0.0,44,0.00,,CLR,0.00,VWS V14.01,2013-09-25 03:00:00,
2013-09-24 22:04:00,67.8,45.1,29.03,East,96,0.0,0.0,44,0.00,,SCT110,0.00,VWS V14.01,2013-09-25 03:04:00,
2013-09-24 22:05:00,67.6,45.0,29.03,East,96,0.0,0.0,44,0.00,,SCT110,0.00,VWS V14.01,2013-09-25 03:05:00,
2013-09-24 22:06:00,67.6,45.0,29.03,East,96,0.0,0.0,44,0.00,,SCT110,0.00,VWS V14.01,2013-09-25 03:06:00,
2013-09-24 22:10:00,67.5,44.8,29.03,East,96,0.0,0.0,44,0.00,,SCT110,0.00,VWS V14.01,2013-09-25 03:10:00,
2013-09-24 22:11:00,67.5,44.8,29.03,East,96,0.0,0.0,44,0.00,,SCT110,0.00,VWS V14.01,2013-09-25 03:11:00,
2013-09-24 22:13:00,67.3,44.7,29.03,East,96,0.0,0.0,44,0.00,,SCT110,0.00,VWS V14.01,2013-09-25 03:13:00,
2013-09-24 22:15:00,67.3,45.8,29.03,East,96,0.0,0.0,46,0.00,,SCT110,0.00,VWS V14.01,2013-09-25 03:15:00,
2013-09-24 22:16:00,67.1,45.7,29.03,East,96,0.0,0.0,46,0.00,,SCT110,0.00,VWS V14.01,2013-09-25 03:16:00,
2013-09-24 22:17:00,67.1,45.7,29.03,East,96,0.0,0.0,46,0.00,,SCT110,0.00,VWS V14.01,2013-09-25 03:17:00,
2013-09-24 22:20:00,67.1,45.7,29.03,East,96,0.0,0.0,46,0.00,,SCT110,0.00,VWS V14.01,2013-09-25 03:20:00,
2013-09-24 22:21:00,67.1,45.7,29.03,East,96,0.0,0.0,46,0.00,,SCT110,0.00,VWS V14.01,2013-09-25 03:21:00,
2013-09-24 22:22:00,66.9,45.5,29.03,East,96,0.0,0.0,46,0.00,,SCT110,0.00,VWS V14.01,2013-09-25 03:22:00,
2013-09-24 22:23:00,66.9,45.5,29.03,East,96,0.0,0.0,46,0.00,,SCT110,0.00,VWS V14.01,2013-09-25 03:23:00,
2013-09-24 22:26:00,66.9,45.5,29.03,East,96,0.0,0.0,46,0.00,,SCT110,0.00,VWS V14.01,2013-09-25 03:26:00,
2013-09-24 22:27:00,66.9,45.5,29.03,East,96,0.0,0.0,46,0.00,,SCT110,0.00,VWS V14.01,2013-09-25 03:27:00,
2013-09-24 22:30:00,66.7,45.3,29.03,East,96,0.0,0.0,46,0.00,,SCT110,0.00,VWS V14.01,2013-09-25 03:30:00,
2013-09-24 22:31:00,66.7,45.3,29.03,East,96,0.0,0.0,46,0.00,,SCT110,0.00,VWS V14.01,2013-09-25 03:31:00,
2013-09-24 22:32:00,66.7,45.3,29.03,East,96,0.0,0.0,46,0.00,,SCT110,0.00,VWS V14.01,2013-09-25 03:32:00,
2013-09-24 22:33:00,66.7,45.3,29.03,East,96,0.0,0.0,46,0.00,,SCT110,0.00,VWS V14.01,2013-09-25 03:33:00,
2013-09-24 22:36:00,66.6,45.2,29.03,East,96,0.0,0.0,46,0.00,,SCT110,0.00,VWS V14.01,2013-09-25 03:36:00,
2013-09-24 22:38:00,66.6,45.2,29.03,East,96,0.0,0.0,46,0.00,,SCT110,0.00,VWS V14.01,2013-09-25 03:38:00,
2013-09-24 22:39:00,66.6,45.2,29.03,East,96,0.0,0.0,46,0.00,,SCT110,0.00,VWS V14.01,2013-09-25 03:39:00,
2013-09-24 22:41:00,66.6,45.2,29.03,East,96,0.0,0.0,46,0.00,,SCT110,0.00,VWS V14.01,2013-09-25 03:41:00,
2013-09-24 22:43:00,66.6,45.2,29.03,East,96,0.0,0.0,46,0.00,,SCT110,0.00,VWS V14.01,2013-09-25 03:43:00,
2013-09-24 22:44:00,66.6,45.2,29.03,East,96,0.0,0.0,46,0.00,,SCT110,0.00,VWS V14.01,2013-09-25 03:44:00,
2013-09-24 22:47:00,66.6,45.2,29.03,East,96,0.0,0.0,46,0.00,,SCT110,0.00,VWS V14.01,2013-09-25 03:47:00,
2013-09-24 22:48:00,66.6,45.2,29.03,East,97,2.7,2.7,46,0.00,,SCT110,0.00,VWS V14.01,2013-09-25 03:48:00,
2013-09-24 22:49:00,66.6,45.2,29.03,East,97,0.0,2.7,46,0.00,,SCT110,0.00,VWS V14.01,2013-09-25 03:49:00,
2013-09-24 22:51:00,66.4,45.0,29.03,East,97,0.0,0.0,46,0.00,,SCT110,0.00,VWS V14.01,2013-09-25 03:51:00,
2013-09-24 22:53:00,66.2,44.8,29.03,East,97,0.0,0.0,46,0.00,,SCT110,0.00,VWS V14.01,2013-09-25 03:53:00,
2013-09-24 22:54:00,66.2,44.8,29.03,East,97,0.0,0.0,46,0.00,,SCT110,0.00,VWS V14.01,2013-09-25 03:54:00,
2013-09-24 22:55:00,66.2,44.8,29.03,East,97,0.0,0.0,46,0.00,,SCT110,0.00,VWS V14.01,2013-09-25 03:55:00,
2013-09-24 22:56:00,66.2,44.8,29.03,East,97,0.0,0.0,46,0.00,,SCT110,0.00,VWS V14.01,2013-09-25 03:56:00,
2013-09-24 22:58:00,66.0,45.8,29.03,East,97,0.0,0.0,48,0.00,,SCT110,0.00,VWS V14.01,2013-09-25 03:58:00,
2013-09-24 22:59:00,66.0,45.8,29.03,East,97,0.0,0.0,48,0.00,,SCT110,0.00,VWS V14.01,2013-09-25 03:59:00,
2013-09-24 23:00:00,66.0,45.8,29.03,East,97,0.0,0.0,48,0.00,,SCT110,0.00,VWS V14.01,2013-09-25 04:00:00,
2013-09-24 23:01:00,66.0,45.8,29.03,East,97,0.0,0.0,48,0.00,,SCT110,0.00,VWS V14.01,2013-09-25 04:01:00,
2013-09-24 23:02:00,66.0,45.8,29.03,East,97,0.0,0.0,48,0.00,,OVC110,0.00,VWS V14.01,2013-09-25 04:02:00,
2013-09-24 23:06:00,66.0,45.8,29.03,East,97,0.0,0.0,48,0.00,,OVC110,0.00,VWS V14.01,2013-09-25 04:06:00,
2013-09-24 23:07:00,66.2,46.0,29.03,East,97,0.0,0.0,48,0.00,,OVC110,0.00,VWS V14.01,2013-09-25 04:07:00,
2013-09-24 23:08:00,66.2,46.0,29.03,East,97,0.0,0.0,48,0.00,,OVC110,0.00,VWS V14.01,2013-09-25 04:08:00,
2013-09-24 23:11:00,66.4,46.1,29.03,SE,134,2.2,4.9,48,0.00,,OVC110,0.00,VWS V14.01,2013-09-25 04:11:00,
2013-09-24 23:12:00,66.6,46.3,29.03,SE,134,2.2,2.2,48,0.00,,OVC110,0.00,VWS V14.01,2013-09-25 04:12:00,
2013-09-24 23:13:00,66.6,46.3,29.03,SE,134,0.0,0.0,48,0.00,,OVC110,0.00,VWS V14.01,2013-09-25 04:13:00,
2013-09-24 23:16:00,66.7,46.5,29.03,SE,134,0.0,0.0,48,0.00,,OVC110,0.00,VWS V14.01,2013-09-25 04:16:00,
2013-09-24 23:17:00,66.7,46.5,29.03,SE,135,0.0,0.0,48,0.00,,OVC110,0.00,VWS V14.01,2013-09-25 04:17:00,
2013-09-24 23:18:00,66.7,46.5,29.03,SE,135,0.0,0.0,48,0.00,,OVC110,0.00,VWS V14.01,2013-09-25 04:18:00,
2013-09-24 23:19:00,66.7,46.5,29.03,SE,135,0.0,0.0,48,0.00,,OVC110,0.00,VWS V14.01,2013-09-25 04:19:00,
2013-09-24 23:21:00,66.7,46.5,29.03,SE,134,0.0,0.0,48,0.00,,OVC110,0.00,VWS V14.01,2013-09-25 04:21:00,
2013-09-24 23:22:00,66.7,46.5,29.03,SE,134,0.0,0.0,48,0.00,,OVC110,0.00,VWS V14.01,2013-09-25 04:22:00,
2013-09-24 23:23:00,66.7,46.5,29.03,SE,135,0.0,0.0,48,0.00,,OVC110,0.00,VWS V14.01,2013-09-25 04:23:00,
2013-09-24 23:24:00,66.7,46.5,29.03,SE,134,0.0,0.0,48,0.00,,OVC110,0.00,VWS V14.01,2013-09-25 04:24:00,
2013-09-24 23:26:00,66.6,46.3,29.03,SE,134,0.0,0.0,48,0.00,,OVC110,0.00,VWS V14.01,2013-09-25 04:26:00,
2013-09-24 23:27:00,66.6,46.3,29.03,SE,134,0.0,0.0,48,0.00,,OVC110,0.00,VWS V14.01,2013-09-25 04:27:00,
2013-09-24 23:28:00,66.6,46.3,29.03,SE,134,0.0,0.0,48,0.00,,OVC110,0.00,VWS V14.01,2013-09-25 04:28:00,
2013-09-24 23:29:00,66.6,46.3,29.03,SE,135,0.0,0.0,48,0.00,,OVC110,0.00,VWS V14.01,2013-09-25 04:29:00,
2013-09-24 23:31:00,66.4,46.1,29.03,SE,134,0.0,0.0,48,0.00,,OVC110,0.00,VWS V14.01,2013-09-25 04:31:00,
2013-09-24 23:32:00,66.4,46.1,29.03,SE,134,0.0,0.0,48,0.00,,OVC110,0.00,VWS V14.01,2013-09-25 04:32:00,
2013-09-24 23:33:00,66.4,46.1,29.03,SE,135,0.0,0.0,48,0.00,,OVC110,0.00,VWS V14.01,2013-09-25 04:33:00,
2013-09-24 23:34:00,66.4,46.1,29.03,SE,135,0.0,0.0,48,0.00,,OVC110,0.00,VWS V14.01,2013-09-25 04:34:00,
2013-09-24 23:37:00,66.4,46.1,29.03,SE,134,0.0,0.0,48,0.00,,OVC110,0.00,VWS V14.01,2013-09-25 04:37:00,
2013-09-24 23:38:00,66.4,46.1,29.03,SE,133,0.0,0.0,48,0.00,,OVC110,0.00,VWS V14.01,2013-09-25 04:38:00,
2013-09-24 23:39:00,66.4,46.1,29.03,SE,133,0.0,0.0,48,0.00,,OVC110,0.00,VWS V14.01,2013-09-25 04:39:00,
2013-09-24 23:42:00,66.6,46.3,29.03,ESE,108,0.0,0.0,48,0.00,,OVC110,0.00,VWS V14.01,2013-09-25 04:42:00,
2013-09-24 23:44:00,66.6,46.3,29.03,ESE,108,0.0,0.0,48,0.00,,OVC110,0.00,VWS V14.01,2013-09-25 04:44:00,
2013-09-24 23:45:00,66.6,46.3,29.03,ESE,108,0.0,0.0,48,0.00,,OVC110,0.00,VWS V14.01,2013-09-25 04:45:00,
2013-09-24 23:46:00,66.6,46.3,29.03,ESE,108,0.0,0.0,48,0.00,,OVC110,0.00,VWS V14.01,2013-09-25 04:46:00,
2013-09-24 23:48:00,66.6,46.3,29.03,East,99,2.7,3.6,48,0.00,,OVC110,0.00,VWS V14.01,2013-09-25 04:48:00,
2013-09-24 23:49:00,66.6,46.3,29.03,East,98,2.7,2.7,48,0.00,,OVC110,0.00,VWS V14.01,2013-09-25 04:49:00,
2013-09-24 23:51:00,66.4,46.1,29.03,East,97,3.6,3.6,48,0.00,,OVC110,0.00,VWS V14.01,2013-09-25 04:51:00,
2013-09-24 23:54:00,66.2,46.0,29.03,East,97,0.0,0.0,48,0.00,,OVC110,0.00,VWS V14.01,2013-09-25 04:54:00,
2013-09-24 23:56:00,66.0,45.8,29.03,East,87,0.0,2.2,48,0.00,,OVC110,0.00,VWS V14.01,2013-09-25 04:56:00,
2013-09-24 23:58:00,65.7,45.5,29.03,East,87,0.0,0.0,48,0.00,,OVC110,0.00,VWS V14.01,2013-09-25 04:58:00,
2013-09-24 23:59:00,65.5,45.3,29.03,East,87,0.0,0.0,48,0.00,,OVC110,0.00,VWS V14.01,2013-09-25 04:59:00,